<?xml version="1.0" encoding="UTF-8" standalone="no" ?>
<gpx xmlns="http://www.topografix.com/GPX/1/1" xmlns:xsi="http://www.w3.org/2001/XMLSchema-instance" xsi:schemaLocation="http://www.topografix.com/GPX/1/1 http://www.topografix.com/GPX/1/1/gpx.xsd" version="1.1" creator="VisuGPX - https://www.visugpx.com">
  <metadata>
    <name>Hohwald-Mont Saint Odile</name>
    <desc><![CDATA[Super parcours et notre record personnel en distance.

De toute manière : 

\" on est trop fort\"]]></desc>
  </metadata>
  <trk>
    <name><![CDATA[Sequence 1]]></name>
    <trkseg>
      <trkpt lat="48.40465" lon="7.33193">
        <ele>597</ele>
        <time>2015-07-12T12:38:29Z</time>
      </trkpt>
      <trkpt lat="48.40472" lon="7.3321">
        <ele>601</ele>
        <time>2015-07-12T12:38:42Z</time>
      </trkpt>
      <trkpt lat="48.40478" lon="7.33222">
        <ele>602</ele>
        <time>2015-07-12T12:38:51Z</time>
      </trkpt>
      <trkpt lat="48.40478" lon="7.3322">
        <ele>603</ele>
        <time>2015-07-12T12:39:02Z</time>
      </trkpt>
      <trkpt lat="48.40482" lon="7.33232">
        <ele>603</ele>
        <time>2015-07-12T12:39:34Z</time>
      </trkpt>
      <trkpt lat="48.40483" lon="7.33232">
        <ele>603</ele>
        <time>2015-07-12T12:39:41Z</time>
      </trkpt>
      <trkpt lat="48.40501" lon="7.33258">
        <ele>605</ele>
        <time>2015-07-12T12:39:55Z</time>
      </trkpt>
      <trkpt lat="48.40501" lon="7.33263">
        <ele>602</ele>
        <time>2015-07-12T12:39:59Z</time>
      </trkpt>
      <trkpt lat="48.40506" lon="7.3327">
        <ele>604</ele>
        <time>2015-07-12T12:40:08Z</time>
      </trkpt>
      <trkpt lat="48.40528" lon="7.33289">
        <ele>603</ele>
        <time>2015-07-12T12:40:24Z</time>
      </trkpt>
      <trkpt lat="48.40543" lon="7.33298">
        <ele>604</ele>
        <time>2015-07-12T12:40:35Z</time>
      </trkpt>
      <trkpt lat="48.40559" lon="7.33323">
        <ele>605</ele>
        <time>2015-07-12T12:40:47Z</time>
      </trkpt>
      <trkpt lat="48.40565" lon="7.33329">
        <ele>607</ele>
        <time>2015-07-12T12:40:52Z</time>
      </trkpt>
      <trkpt lat="48.4057" lon="7.33339">
        <ele>612</ele>
        <time>2015-07-12T12:41:03Z</time>
      </trkpt>
      <trkpt lat="48.40578" lon="7.33352">
        <ele>614</ele>
        <time>2015-07-12T12:41:14Z</time>
      </trkpt>
      <trkpt lat="48.40589" lon="7.33368">
        <ele>623</ele>
        <time>2015-07-12T12:41:25Z</time>
      </trkpt>
      <trkpt lat="48.40601" lon="7.33381">
        <ele>628</ele>
        <time>2015-07-12T12:41:36Z</time>
      </trkpt>
      <trkpt lat="48.40608" lon="7.334">
        <ele>633</ele>
        <time>2015-07-12T12:41:50Z</time>
      </trkpt>
      <trkpt lat="48.4061" lon="7.33405">
        <ele>633</ele>
        <time>2015-07-12T12:42:02Z</time>
      </trkpt>
      <trkpt lat="48.40611" lon="7.33405">
        <ele>634</ele>
        <time>2015-07-12T12:42:09Z</time>
      </trkpt>
      <trkpt lat="48.4062" lon="7.33425">
        <ele>635</ele>
        <time>2015-07-12T12:42:20Z</time>
      </trkpt>
      <trkpt lat="48.40632" lon="7.33457">
        <ele>637</ele>
        <time>2015-07-12T12:42:31Z</time>
      </trkpt>
      <trkpt lat="48.40643" lon="7.33484">
        <ele>638</ele>
        <time>2015-07-12T12:42:42Z</time>
      </trkpt>
      <trkpt lat="48.40646" lon="7.33501">
        <ele>639</ele>
        <time>2015-07-12T12:42:53Z</time>
      </trkpt>
      <trkpt lat="48.40648" lon="7.33519">
        <ele>638</ele>
        <time>2015-07-12T12:43:07Z</time>
      </trkpt>
      <trkpt lat="48.40648" lon="7.33522">
        <ele>637</ele>
        <time>2015-07-12T12:43:23Z</time>
      </trkpt>
      <trkpt lat="48.40648" lon="7.33522">
        <ele>637</ele>
        <time>2015-07-12T12:43:27Z</time>
      </trkpt>
      <trkpt lat="48.40648" lon="7.33523">
        <ele>637</ele>
        <time>2015-07-12T12:43:37Z</time>
      </trkpt>
      <trkpt lat="48.40673" lon="7.33623">
        <ele>643</ele>
        <time>2015-07-12T12:44:07Z</time>
      </trkpt>
      <trkpt lat="48.40673" lon="7.33648">
        <ele>640</ele>
        <time>2015-07-12T12:44:20Z</time>
      </trkpt>
      <trkpt lat="48.40674" lon="7.3365">
        <ele>641</ele>
        <time>2015-07-12T12:44:21Z</time>
      </trkpt>
      <trkpt lat="48.4068" lon="7.3367">
        <ele>648</ele>
        <time>2015-07-12T12:44:34Z</time>
      </trkpt>
      <trkpt lat="48.40684" lon="7.33683">
        <ele>654</ele>
        <time>2015-07-12T12:44:51Z</time>
      </trkpt>
      <trkpt lat="48.40683" lon="7.33685">
        <ele>653</ele>
        <time>2015-07-12T12:44:54Z</time>
      </trkpt>
      <trkpt lat="48.40683" lon="7.33686">
        <ele>653</ele>
        <time>2015-07-12T12:45:05Z</time>
      </trkpt>
      <trkpt lat="48.40694" lon="7.33699">
        <ele>653</ele>
        <time>2015-07-12T12:45:24Z</time>
      </trkpt>
      <trkpt lat="48.40697" lon="7.33705">
        <ele>650</ele>
        <time>2015-07-12T12:45:27Z</time>
      </trkpt>
      <trkpt lat="48.40718" lon="7.3373">
        <ele>652</ele>
        <time>2015-07-12T12:45:43Z</time>
      </trkpt>
      <trkpt lat="48.4073" lon="7.33742">
        <ele>649</ele>
        <time>2015-07-12T12:45:55Z</time>
      </trkpt>
      <trkpt lat="48.40738" lon="7.33743">
        <ele>650</ele>
        <time>2015-07-12T12:46:05Z</time>
      </trkpt>
      <trkpt lat="48.40747" lon="7.33745">
        <ele>646</ele>
        <time>2015-07-12T12:46:11Z</time>
      </trkpt>
      <trkpt lat="48.40771" lon="7.33744">
        <ele>647</ele>
        <time>2015-07-12T12:46:27Z</time>
      </trkpt>
      <trkpt lat="48.40782" lon="7.33741">
        <ele>647</ele>
        <time>2015-07-12T12:46:36Z</time>
      </trkpt>
      <trkpt lat="48.40799" lon="7.33753">
        <ele>652</ele>
        <time>2015-07-12T12:46:50Z</time>
      </trkpt>
      <trkpt lat="48.40803" lon="7.33758">
        <ele>654</ele>
        <time>2015-07-12T12:46:55Z</time>
      </trkpt>
      <trkpt lat="48.40815" lon="7.33774">
        <ele>655</ele>
        <time>2015-07-12T12:47:10Z</time>
      </trkpt>
      <trkpt lat="48.40815" lon="7.33773">
        <ele>656</ele>
        <time>2015-07-12T12:47:17Z</time>
      </trkpt>
      <trkpt lat="48.4082" lon="7.33784">
        <ele>657</ele>
        <time>2015-07-12T12:47:37Z</time>
      </trkpt>
      <trkpt lat="48.40829" lon="7.33803">
        <ele>661</ele>
        <time>2015-07-12T12:47:43Z</time>
      </trkpt>
      <trkpt lat="48.40845" lon="7.33819">
        <ele>657</ele>
        <time>2015-07-12T12:48:00Z</time>
      </trkpt>
      <trkpt lat="48.40858" lon="7.33833">
        <ele>657</ele>
        <time>2015-07-12T12:48:07Z</time>
      </trkpt>
      <trkpt lat="48.40865" lon="7.33839">
        <ele>657</ele>
        <time>2015-07-12T12:48:14Z</time>
      </trkpt>
      <trkpt lat="48.4088" lon="7.33851">
        <ele>661</ele>
        <time>2015-07-12T12:48:25Z</time>
      </trkpt>
      <trkpt lat="48.40899" lon="7.33876">
        <ele>662</ele>
        <time>2015-07-12T12:48:41Z</time>
      </trkpt>
      <trkpt lat="48.40903" lon="7.33882">
        <ele>663</ele>
        <time>2015-07-12T12:48:45Z</time>
      </trkpt>
      <trkpt lat="48.40906" lon="7.33897">
        <ele>669</ele>
        <time>2015-07-12T12:48:56Z</time>
      </trkpt>
      <trkpt lat="48.40915" lon="7.33912">
        <ele>676</ele>
        <time>2015-07-12T12:49:07Z</time>
      </trkpt>
      <trkpt lat="48.40929" lon="7.33944">
        <ele>672</ele>
        <time>2015-07-12T12:49:27Z</time>
      </trkpt>
      <trkpt lat="48.40932" lon="7.33946">
        <ele>671</ele>
        <time>2015-07-12T12:49:31Z</time>
      </trkpt>
      <trkpt lat="48.40945" lon="7.33957">
        <ele>672</ele>
        <time>2015-07-12T12:49:45Z</time>
      </trkpt>
      <trkpt lat="48.40961" lon="7.33959">
        <ele>673</ele>
        <time>2015-07-12T12:49:54Z</time>
      </trkpt>
      <trkpt lat="48.40972" lon="7.33963">
        <ele>681</ele>
        <time>2015-07-12T12:50:07Z</time>
      </trkpt>
      <trkpt lat="48.40991" lon="7.33954">
        <ele>679</ele>
        <time>2015-07-12T12:50:22Z</time>
      </trkpt>
      <trkpt lat="48.40999" lon="7.3395">
        <ele>682</ele>
        <time>2015-07-12T12:50:30Z</time>
      </trkpt>
      <trkpt lat="48.41006" lon="7.33946">
        <ele>683</ele>
        <time>2015-07-12T12:50:38Z</time>
      </trkpt>
      <trkpt lat="48.41011" lon="7.33935">
        <ele>685</ele>
        <time>2015-07-12T12:50:50Z</time>
      </trkpt>
      <trkpt lat="48.41023" lon="7.33922">
        <ele>678</ele>
        <time>2015-07-12T12:51:01Z</time>
      </trkpt>
      <trkpt lat="48.41033" lon="7.33903">
        <ele>681</ele>
        <time>2015-07-12T12:51:12Z</time>
      </trkpt>
      <trkpt lat="48.41059" lon="7.33889">
        <ele>683</ele>
        <time>2015-07-12T12:51:32Z</time>
      </trkpt>
      <trkpt lat="48.41068" lon="7.33895">
        <ele>684</ele>
        <time>2015-07-12T12:51:38Z</time>
      </trkpt>
      <trkpt lat="48.41083" lon="7.33887">
        <ele>681</ele>
        <time>2015-07-12T12:51:53Z</time>
      </trkpt>
      <trkpt lat="48.41084" lon="7.33883">
        <ele>679</ele>
        <time>2015-07-12T12:51:56Z</time>
      </trkpt>
      <trkpt lat="48.41097" lon="7.33885">
        <ele>684</ele>
        <time>2015-07-12T12:52:09Z</time>
      </trkpt>
      <trkpt lat="48.41109" lon="7.33891">
        <ele>688</ele>
        <time>2015-07-12T12:52:18Z</time>
      </trkpt>
      <trkpt lat="48.41123" lon="7.33893">
        <ele>692</ele>
        <time>2015-07-12T12:52:30Z</time>
      </trkpt>
      <trkpt lat="48.41134" lon="7.33891">
        <ele>693</ele>
        <time>2015-07-12T12:52:40Z</time>
      </trkpt>
      <trkpt lat="48.41147" lon="7.3389">
        <ele>700</ele>
        <time>2015-07-12T12:52:52Z</time>
      </trkpt>
      <trkpt lat="48.4117" lon="7.33896">
        <ele>697</ele>
        <time>2015-07-12T12:53:11Z</time>
      </trkpt>
      <trkpt lat="48.41177" lon="7.33908">
        <ele>699</ele>
        <time>2015-07-12T12:53:23Z</time>
      </trkpt>
      <trkpt lat="48.41178" lon="7.33908">
        <ele>699</ele>
        <time>2015-07-12T12:53:25Z</time>
      </trkpt>
      <trkpt lat="48.41177" lon="7.33908">
        <ele>700</ele>
        <time>2015-07-12T12:53:36Z</time>
      </trkpt>
      <trkpt lat="48.41177" lon="7.33908">
        <ele>700</ele>
        <time>2015-07-12T12:53:56Z</time>
      </trkpt>
      <trkpt lat="48.41181" lon="7.3391">
        <ele>702</ele>
        <time>2015-07-12T12:54:01Z</time>
      </trkpt>
      <trkpt lat="48.41181" lon="7.33908">
        <ele>705</ele>
        <time>2015-07-12T12:54:13Z</time>
      </trkpt>
      <trkpt lat="48.41186" lon="7.33908">
        <ele>702</ele>
        <time>2015-07-12T12:54:26Z</time>
      </trkpt>
      <trkpt lat="48.41198" lon="7.33912">
        <ele>704</ele>
        <time>2015-07-12T12:54:38Z</time>
      </trkpt>
      <trkpt lat="48.41233" lon="7.3392">
        <ele>701</ele>
        <time>2015-07-12T12:55:00Z</time>
      </trkpt>
      <trkpt lat="48.41235" lon="7.33919">
        <ele>701</ele>
        <time>2015-07-12T12:55:02Z</time>
      </trkpt>
      <trkpt lat="48.4125" lon="7.3392">
        <ele>707</ele>
        <time>2015-07-12T12:55:16Z</time>
      </trkpt>
      <trkpt lat="48.41266" lon="7.33917">
        <ele>706</ele>
        <time>2015-07-12T12:55:28Z</time>
      </trkpt>
      <trkpt lat="48.41277" lon="7.33914">
        <ele>706</ele>
        <time>2015-07-12T12:55:40Z</time>
      </trkpt>
      <trkpt lat="48.41296" lon="7.33911">
        <ele>709</ele>
        <time>2015-07-12T12:55:54Z</time>
      </trkpt>
      <trkpt lat="48.41311" lon="7.33914">
        <ele>711</ele>
        <time>2015-07-12T12:56:04Z</time>
      </trkpt>
      <trkpt lat="48.41328" lon="7.33915">
        <ele>714</ele>
        <time>2015-07-12T12:56:17Z</time>
      </trkpt>
      <trkpt lat="48.41342" lon="7.33916">
        <ele>715</ele>
        <time>2015-07-12T12:56:26Z</time>
      </trkpt>
      <trkpt lat="48.41358" lon="7.33917">
        <ele>719</ele>
        <time>2015-07-12T12:56:37Z</time>
      </trkpt>
      <trkpt lat="48.4138" lon="7.3392">
        <ele>721</ele>
        <time>2015-07-12T12:56:52Z</time>
      </trkpt>
      <trkpt lat="48.41392" lon="7.33922">
        <ele>721</ele>
        <time>2015-07-12T12:57:00Z</time>
      </trkpt>
      <trkpt lat="48.41412" lon="7.3393">
        <ele>721</ele>
        <time>2015-07-12T12:57:12Z</time>
      </trkpt>
      <trkpt lat="48.41422" lon="7.33937">
        <ele>720</ele>
        <time>2015-07-12T12:57:23Z</time>
      </trkpt>
      <trkpt lat="48.41432" lon="7.33942">
        <ele>719</ele>
        <time>2015-07-12T12:57:35Z</time>
      </trkpt>
      <trkpt lat="48.4145" lon="7.33949">
        <ele>722</ele>
        <time>2015-07-12T12:57:48Z</time>
      </trkpt>
      <trkpt lat="48.41465" lon="7.33955">
        <ele>726</ele>
        <time>2015-07-12T12:58:02Z</time>
      </trkpt>
      <trkpt lat="48.41476" lon="7.33966">
        <ele>728</ele>
        <time>2015-07-12T12:58:14Z</time>
      </trkpt>
      <trkpt lat="48.41491" lon="7.33983">
        <ele>747</ele>
        <time>2015-07-12T12:58:29Z</time>
      </trkpt>
      <trkpt lat="48.41495" lon="7.33984">
        <ele>744</ele>
        <time>2015-07-12T12:58:31Z</time>
      </trkpt>
      <trkpt lat="48.41517" lon="7.33965">
        <ele>732</ele>
        <time>2015-07-12T12:58:47Z</time>
      </trkpt>
      <trkpt lat="48.41533" lon="7.33947">
        <ele>730</ele>
        <time>2015-07-12T12:59:01Z</time>
      </trkpt>
      <trkpt lat="48.41537" lon="7.33938">
        <ele>730</ele>
        <time>2015-07-12T12:59:06Z</time>
      </trkpt>
      <trkpt lat="48.41552" lon="7.33924">
        <ele>737</ele>
        <time>2015-07-12T12:59:20Z</time>
      </trkpt>
      <trkpt lat="48.41559" lon="7.33922">
        <ele>737</ele>
        <time>2015-07-12T12:59:28Z</time>
      </trkpt>
      <trkpt lat="48.41589" lon="7.3392">
        <ele>744</ele>
        <time>2015-07-12T12:59:49Z</time>
      </trkpt>
      <trkpt lat="48.41591" lon="7.33921">
        <ele>747</ele>
        <time>2015-07-12T12:59:50Z</time>
      </trkpt>
      <trkpt lat="48.41608" lon="7.3393">
        <ele>745</ele>
        <time>2015-07-12T13:00:01Z</time>
      </trkpt>
      <trkpt lat="48.41625" lon="7.33942">
        <ele>746</ele>
        <time>2015-07-12T13:00:12Z</time>
      </trkpt>
      <trkpt lat="48.41648" lon="7.3397">
        <ele>745</ele>
        <time>2015-07-12T13:00:26Z</time>
      </trkpt>
      <trkpt lat="48.41642" lon="7.34006">
        <ele>737</ele>
        <time>2015-07-12T13:00:35Z</time>
      </trkpt>
      <trkpt lat="48.41643" lon="7.34024">
        <ele>724</ele>
        <time>2015-07-12T13:00:55Z</time>
      </trkpt>
      <trkpt lat="48.41642" lon="7.3403">
        <ele>722</ele>
        <time>2015-07-12T13:01:01Z</time>
      </trkpt>
      <trkpt lat="48.41634" lon="7.34044">
        <ele>723</ele>
        <time>2015-07-12T13:01:10Z</time>
      </trkpt>
      <trkpt lat="48.41626" lon="7.34057">
        <ele>725</ele>
        <time>2015-07-12T13:01:18Z</time>
      </trkpt>
      <trkpt lat="48.41612" lon="7.34088">
        <ele>726</ele>
        <time>2015-07-12T13:01:37Z</time>
      </trkpt>
      <trkpt lat="48.4161" lon="7.3411">
        <ele>725</ele>
        <time>2015-07-12T13:01:48Z</time>
      </trkpt>
      <trkpt lat="48.41602" lon="7.34137">
        <ele>726</ele>
        <time>2015-07-12T13:02:02Z</time>
      </trkpt>
      <trkpt lat="48.41602" lon="7.34139">
        <ele>726</ele>
        <time>2015-07-12T13:02:04Z</time>
      </trkpt>
      <trkpt lat="48.41596" lon="7.34162">
        <ele>721</ele>
        <time>2015-07-12T13:02:15Z</time>
      </trkpt>
      <trkpt lat="48.41597" lon="7.34189">
        <ele>726</ele>
        <time>2015-07-12T13:02:27Z</time>
      </trkpt>
      <trkpt lat="48.41591" lon="7.34215">
        <ele>731</ele>
        <time>2015-07-12T13:02:40Z</time>
      </trkpt>
      <trkpt lat="48.41586" lon="7.34243">
        <ele>728</ele>
        <time>2015-07-12T13:02:51Z</time>
      </trkpt>
      <trkpt lat="48.41578" lon="7.34266">
        <ele>730</ele>
        <time>2015-07-12T13:03:04Z</time>
      </trkpt>
      <trkpt lat="48.4157" lon="7.34295">
        <ele>732</ele>
        <time>2015-07-12T13:03:17Z</time>
      </trkpt>
      <trkpt lat="48.41565" lon="7.34334">
        <ele>733</ele>
        <time>2015-07-12T13:03:34Z</time>
      </trkpt>
      <trkpt lat="48.41562" lon="7.34345">
        <ele>731</ele>
        <time>2015-07-12T13:03:40Z</time>
      </trkpt>
      <trkpt lat="48.41547" lon="7.34381">
        <ele>730</ele>
        <time>2015-07-12T13:04:01Z</time>
      </trkpt>
      <trkpt lat="48.41544" lon="7.34395">
        <ele>734</ele>
        <time>2015-07-12T13:04:09Z</time>
      </trkpt>
      <trkpt lat="48.41541" lon="7.34415">
        <ele>733</ele>
        <time>2015-07-12T13:04:20Z</time>
      </trkpt>
      <trkpt lat="48.41533" lon="7.34424">
        <ele>730</ele>
        <time>2015-07-12T13:04:27Z</time>
      </trkpt>
      <trkpt lat="48.41529" lon="7.34436">
        <ele>731</ele>
        <time>2015-07-12T13:04:35Z</time>
      </trkpt>
      <trkpt lat="48.41528" lon="7.34453">
        <ele>734</ele>
        <time>2015-07-12T13:04:46Z</time>
      </trkpt>
      <trkpt lat="48.41519" lon="7.34464">
        <ele>727</ele>
        <time>2015-07-12T13:04:57Z</time>
      </trkpt>
      <trkpt lat="48.41505" lon="7.34473">
        <ele>724</ele>
        <time>2015-07-12T13:05:08Z</time>
      </trkpt>
      <trkpt lat="48.41493" lon="7.34483">
        <ele>727</ele>
        <time>2015-07-12T13:05:19Z</time>
      </trkpt>
      <trkpt lat="48.41474" lon="7.34503">
        <ele>731</ele>
        <time>2015-07-12T13:05:37Z</time>
      </trkpt>
      <trkpt lat="48.41468" lon="7.34507">
        <ele>730</ele>
        <time>2015-07-12T13:05:41Z</time>
      </trkpt>
      <trkpt lat="48.41457" lon="7.34526">
        <ele>733</ele>
        <time>2015-07-12T13:05:52Z</time>
      </trkpt>
      <trkpt lat="48.41444" lon="7.34543">
        <ele>742</ele>
        <time>2015-07-12T13:06:09Z</time>
      </trkpt>
      <trkpt lat="48.41436" lon="7.34571">
        <ele>748</ele>
        <time>2015-07-12T13:06:23Z</time>
      </trkpt>
      <trkpt lat="48.41437" lon="7.34583">
        <ele>750</ele>
        <time>2015-07-12T13:06:29Z</time>
      </trkpt>
      <trkpt lat="48.41431" lon="7.3459">
        <ele>754</ele>
        <time>2015-07-12T13:06:37Z</time>
      </trkpt>
      <trkpt lat="48.41425" lon="7.34611">
        <ele>760</ele>
        <time>2015-07-12T13:06:53Z</time>
      </trkpt>
      <trkpt lat="48.41422" lon="7.34617">
        <ele>763</ele>
        <time>2015-07-12T13:06:58Z</time>
      </trkpt>
      <trkpt lat="48.41423" lon="7.34632">
        <ele>761</ele>
        <time>2015-07-12T13:07:09Z</time>
      </trkpt>
      <trkpt lat="48.41424" lon="7.34653">
        <ele>758</ele>
        <time>2015-07-12T13:07:20Z</time>
      </trkpt>
      <trkpt lat="48.41422" lon="7.3467">
        <ele>763</ele>
        <time>2015-07-12T13:07:31Z</time>
      </trkpt>
      <trkpt lat="48.41424" lon="7.34701">
        <ele>768</ele>
        <time>2015-07-12T13:07:47Z</time>
      </trkpt>
      <trkpt lat="48.41428" lon="7.34716">
        <ele>766</ele>
        <time>2015-07-12T13:07:54Z</time>
      </trkpt>
      <trkpt lat="48.41421" lon="7.34733">
        <ele>768</ele>
        <time>2015-07-12T13:08:04Z</time>
      </trkpt>
      <trkpt lat="48.41424" lon="7.34756">
        <ele>768</ele>
        <time>2015-07-12T13:08:15Z</time>
      </trkpt>
      <trkpt lat="48.41421" lon="7.34782">
        <ele>773</ele>
        <time>2015-07-12T13:08:36Z</time>
      </trkpt>
      <trkpt lat="48.41421" lon="7.34783">
        <ele>772</ele>
        <time>2015-07-12T13:08:41Z</time>
      </trkpt>
      <trkpt lat="48.41416" lon="7.34815">
        <ele>775</ele>
        <time>2015-07-12T13:08:53Z</time>
      </trkpt>
      <trkpt lat="48.41412" lon="7.34852">
        <ele>779</ele>
        <time>2015-07-12T13:09:09Z</time>
      </trkpt>
      <trkpt lat="48.41413" lon="7.34857">
        <ele>781</ele>
        <time>2015-07-12T13:09:16Z</time>
      </trkpt>
      <trkpt lat="48.4141" lon="7.34855">
        <ele>779</ele>
        <time>2015-07-12T13:09:25Z</time>
      </trkpt>
      <trkpt lat="48.41411" lon="7.34852">
        <ele>777</ele>
        <time>2015-07-12T13:09:36Z</time>
      </trkpt>
      <trkpt lat="48.41419" lon="7.34851">
        <ele>779</ele>
        <time>2015-07-12T13:09:43Z</time>
      </trkpt>
      <trkpt lat="48.4143" lon="7.34855">
        <ele>778</ele>
        <time>2015-07-12T13:09:54Z</time>
      </trkpt>
      <trkpt lat="48.41431" lon="7.34859">
        <ele>783</ele>
        <time>2015-07-12T13:10:07Z</time>
      </trkpt>
      <trkpt lat="48.41445" lon="7.3484">
        <ele>785</ele>
        <time>2015-07-12T13:10:29Z</time>
      </trkpt>
      <trkpt lat="48.4145" lon="7.34827">
        <ele>785</ele>
        <time>2015-07-12T13:10:37Z</time>
      </trkpt>
      <trkpt lat="48.41457" lon="7.34812">
        <ele>783</ele>
        <time>2015-07-12T13:10:44Z</time>
      </trkpt>
      <trkpt lat="48.41467" lon="7.3479">
        <ele>783</ele>
        <time>2015-07-12T13:10:57Z</time>
      </trkpt>
      <trkpt lat="48.41481" lon="7.3478">
        <ele>787</ele>
        <time>2015-07-12T13:11:12Z</time>
      </trkpt>
      <trkpt lat="48.41496" lon="7.3479">
        <ele>792</ele>
        <time>2015-07-12T13:11:28Z</time>
      </trkpt>
      <trkpt lat="48.41495" lon="7.34792">
        <ele>792</ele>
        <time>2015-07-12T13:11:29Z</time>
      </trkpt>
      <trkpt lat="48.4148" lon="7.34809">
        <ele>787</ele>
        <time>2015-07-12T13:11:47Z</time>
      </trkpt>
      <trkpt lat="48.41484" lon="7.34814">
        <ele>785</ele>
        <time>2015-07-12T13:11:51Z</time>
      </trkpt>
      <trkpt lat="48.41495" lon="7.34843">
        <ele>783</ele>
        <time>2015-07-12T13:12:09Z</time>
      </trkpt>
      <trkpt lat="48.41499" lon="7.34858">
        <ele>786</ele>
        <time>2015-07-12T13:12:19Z</time>
      </trkpt>
      <trkpt lat="48.41499" lon="7.34874">
        <ele>783</ele>
        <time>2015-07-12T13:12:29Z</time>
      </trkpt>
      <trkpt lat="48.41498" lon="7.34922">
        <ele>785</ele>
        <time>2015-07-12T13:12:50Z</time>
      </trkpt>
      <trkpt lat="48.41498" lon="7.34923">
        <ele>785</ele>
        <time>2015-07-12T13:12:51Z</time>
      </trkpt>
      <trkpt lat="48.41503" lon="7.34915">
        <ele>788</ele>
        <time>2015-07-12T13:13:04Z</time>
      </trkpt>
      <trkpt lat="48.41515" lon="7.34906">
        <ele>790</ele>
        <time>2015-07-12T13:13:20Z</time>
      </trkpt>
      <trkpt lat="48.41524" lon="7.34905">
        <ele>790</ele>
        <time>2015-07-12T13:13:26Z</time>
      </trkpt>
      <trkpt lat="48.4153" lon="7.34899">
        <ele>791</ele>
        <time>2015-07-12T13:13:37Z</time>
      </trkpt>
      <trkpt lat="48.41553" lon="7.34878">
        <ele>794</ele>
        <time>2015-07-12T13:13:52Z</time>
      </trkpt>
      <trkpt lat="48.41566" lon="7.34869">
        <ele>792</ele>
        <time>2015-07-12T13:14:03Z</time>
      </trkpt>
      <trkpt lat="48.41576" lon="7.34867">
        <ele>792</ele>
        <time>2015-07-12T13:14:10Z</time>
      </trkpt>
      <trkpt lat="48.41589" lon="7.34855">
        <ele>791</ele>
        <time>2015-07-12T13:14:21Z</time>
      </trkpt>
      <trkpt lat="48.41604" lon="7.34847">
        <ele>797</ele>
        <time>2015-07-12T13:14:39Z</time>
      </trkpt>
      <trkpt lat="48.41605" lon="7.3485">
        <ele>795</ele>
        <time>2015-07-12T13:14:57Z</time>
      </trkpt>
      <trkpt lat="48.41606" lon="7.34851">
        <ele>795</ele>
        <time>2015-07-12T13:14:58Z</time>
      </trkpt>
      <trkpt lat="48.41601" lon="7.34852">
        <ele>798</ele>
        <time>2015-07-12T13:15:12Z</time>
      </trkpt>
      <trkpt lat="48.41593" lon="7.34865">
        <ele>802</ele>
        <time>2015-07-12T13:15:26Z</time>
      </trkpt>
      <trkpt lat="48.41574" lon="7.34889">
        <ele>803</ele>
        <time>2015-07-12T13:15:49Z</time>
      </trkpt>
      <trkpt lat="48.41572" lon="7.34889">
        <ele>803</ele>
        <time>2015-07-12T13:15:51Z</time>
      </trkpt>
      <trkpt lat="48.41556" lon="7.34904">
        <ele>802</ele>
        <time>2015-07-12T13:16:04Z</time>
      </trkpt>
      <trkpt lat="48.4153" lon="7.34918">
        <ele>801</ele>
        <time>2015-07-12T13:16:21Z</time>
      </trkpt>
      <trkpt lat="48.41505" lon="7.34923">
        <ele>800</ele>
        <time>2015-07-12T13:16:36Z</time>
      </trkpt>
      <trkpt lat="48.41503" lon="7.34924">
        <ele>800</ele>
        <time>2015-07-12T13:16:37Z</time>
      </trkpt>
      <trkpt lat="48.41487" lon="7.34932">
        <ele>792</ele>
        <time>2015-07-12T13:16:53Z</time>
      </trkpt>
      <trkpt lat="48.41487" lon="7.34932">
        <ele>784</ele>
        <time>2015-07-12T13:17:06Z</time>
      </trkpt>
      <trkpt lat="48.41489" lon="7.34938">
        <ele>788</ele>
        <time>2015-07-12T13:17:13Z</time>
      </trkpt>
      <trkpt lat="48.41502" lon="7.34944">
        <ele>786</ele>
        <time>2015-07-12T13:17:24Z</time>
      </trkpt>
      <trkpt lat="48.41521" lon="7.34974">
        <ele>785</ele>
        <time>2015-07-12T13:17:43Z</time>
      </trkpt>
      <trkpt lat="48.41526" lon="7.34983">
        <ele>784</ele>
        <time>2015-07-12T13:17:50Z</time>
      </trkpt>
      <trkpt lat="48.41539" lon="7.35008">
        <ele>786</ele>
        <time>2015-07-12T13:18:13Z</time>
      </trkpt>
      <trkpt lat="48.41539" lon="7.3501">
        <ele>788</ele>
        <time>2015-07-12T13:18:16Z</time>
      </trkpt>
      <trkpt lat="48.41539" lon="7.35011">
        <ele>788</ele>
        <time>2015-07-12T13:18:27Z</time>
      </trkpt>
      <trkpt lat="48.4155" lon="7.35032">
        <ele>778</ele>
        <time>2015-07-12T13:18:41Z</time>
      </trkpt>
      <trkpt lat="48.41552" lon="7.35051">
        <ele>775</ele>
        <time>2015-07-12T13:19:00Z</time>
      </trkpt>
      <trkpt lat="48.41552" lon="7.35052">
        <ele>775</ele>
        <time>2015-07-12T13:19:07Z</time>
      </trkpt>
      <trkpt lat="48.4156" lon="7.35057">
        <ele>775</ele>
        <time>2015-07-12T13:19:14Z</time>
      </trkpt>
      <trkpt lat="48.41581" lon="7.35078">
        <ele>774</ele>
        <time>2015-07-12T13:19:25Z</time>
      </trkpt>
      <trkpt lat="48.41607" lon="7.35103">
        <ele>777</ele>
        <time>2015-07-12T13:19:43Z</time>
      </trkpt>
      <trkpt lat="48.41614" lon="7.3511">
        <ele>780</ele>
        <time>2015-07-12T13:19:49Z</time>
      </trkpt>
      <trkpt lat="48.41627" lon="7.35125">
        <ele>779</ele>
        <time>2015-07-12T13:20:03Z</time>
      </trkpt>
      <trkpt lat="48.41644" lon="7.35133">
        <ele>784</ele>
        <time>2015-07-12T13:20:15Z</time>
      </trkpt>
      <trkpt lat="48.41663" lon="7.35147">
        <ele>788</ele>
        <time>2015-07-12T13:20:32Z</time>
      </trkpt>
      <trkpt lat="48.41676" lon="7.35157">
        <ele>798</ele>
        <time>2015-07-12T13:20:42Z</time>
      </trkpt>
      <trkpt lat="48.41682" lon="7.35169">
        <ele>805</ele>
        <time>2015-07-12T13:20:50Z</time>
      </trkpt>
      <trkpt lat="48.41695" lon="7.3518">
        <ele>809</ele>
        <time>2015-07-12T13:21:04Z</time>
      </trkpt>
      <trkpt lat="48.41705" lon="7.35203">
        <ele>810</ele>
        <time>2015-07-12T13:21:16Z</time>
      </trkpt>
      <trkpt lat="48.41718" lon="7.35231">
        <ele>800</ele>
        <time>2015-07-12T13:21:27Z</time>
      </trkpt>
      <trkpt lat="48.41733" lon="7.35247">
        <ele>797</ele>
        <time>2015-07-12T13:21:37Z</time>
      </trkpt>
      <trkpt lat="48.41756" lon="7.35269">
        <ele>793</ele>
        <time>2015-07-12T13:21:58Z</time>
      </trkpt>
      <trkpt lat="48.41758" lon="7.35271">
        <ele>791</ele>
        <time>2015-07-12T13:22:01Z</time>
      </trkpt>
      <trkpt lat="48.41772" lon="7.35294">
        <ele>792</ele>
        <time>2015-07-12T13:22:15Z</time>
      </trkpt>
      <trkpt lat="48.41771" lon="7.35309">
        <ele>798</ele>
        <time>2015-07-12T13:22:24Z</time>
      </trkpt>
      <trkpt lat="48.41773" lon="7.35329">
        <ele>799</ele>
        <time>2015-07-12T13:22:35Z</time>
      </trkpt>
      <trkpt lat="48.41777" lon="7.35347">
        <ele>791</ele>
        <time>2015-07-12T13:22:46Z</time>
      </trkpt>
      <trkpt lat="48.41789" lon="7.35369">
        <ele>792</ele>
        <time>2015-07-12T13:22:57Z</time>
      </trkpt>
      <trkpt lat="48.41793" lon="7.35392">
        <ele>791</ele>
        <time>2015-07-12T13:23:09Z</time>
      </trkpt>
      <trkpt lat="48.41796" lon="7.35422">
        <ele>785</ele>
        <time>2015-07-12T13:23:23Z</time>
      </trkpt>
      <trkpt lat="48.41805" lon="7.35448">
        <ele>783</ele>
        <time>2015-07-12T13:23:34Z</time>
      </trkpt>
      <trkpt lat="48.41812" lon="7.35462">
        <ele>786</ele>
        <time>2015-07-12T13:23:41Z</time>
      </trkpt>
      <trkpt lat="48.41827" lon="7.35491">
        <ele>787</ele>
        <time>2015-07-12T13:23:56Z</time>
      </trkpt>
      <trkpt lat="48.41833" lon="7.35505">
        <ele>780</ele>
        <time>2015-07-12T13:24:03Z</time>
      </trkpt>
      <trkpt lat="48.41845" lon="7.35544">
        <ele>773</ele>
        <time>2015-07-12T13:24:21Z</time>
      </trkpt>
      <trkpt lat="48.4185" lon="7.35547">
        <ele>772</ele>
        <time>2015-07-12T13:24:25Z</time>
      </trkpt>
      <trkpt lat="48.41862" lon="7.35564">
        <ele>774</ele>
        <time>2015-07-12T13:24:37Z</time>
      </trkpt>
      <trkpt lat="48.41873" lon="7.35575">
        <ele>778</ele>
        <time>2015-07-12T13:24:47Z</time>
      </trkpt>
      <trkpt lat="48.41883" lon="7.35591">
        <ele>784</ele>
        <time>2015-07-12T13:25:00Z</time>
      </trkpt>
      <trkpt lat="48.41896" lon="7.35602">
        <ele>782</ele>
        <time>2015-07-12T13:25:12Z</time>
      </trkpt>
      <trkpt lat="48.4191" lon="7.35616">
        <ele>781</ele>
        <time>2015-07-12T13:25:24Z</time>
      </trkpt>
      <trkpt lat="48.41927" lon="7.3562">
        <ele>780</ele>
        <time>2015-07-12T13:25:35Z</time>
      </trkpt>
      <trkpt lat="48.41955" lon="7.35624">
        <ele>781</ele>
        <time>2015-07-12T13:25:55Z</time>
      </trkpt>
      <trkpt lat="48.41958" lon="7.35624">
        <ele>781</ele>
        <time>2015-07-12T13:25:58Z</time>
      </trkpt>
      <trkpt lat="48.41973" lon="7.35611">
        <ele>774</ele>
        <time>2015-07-12T13:26:13Z</time>
      </trkpt>
      <trkpt lat="48.4198" lon="7.35607">
        <ele>775</ele>
        <time>2015-07-12T13:26:20Z</time>
      </trkpt>
      <trkpt lat="48.41988" lon="7.35606">
        <ele>775</ele>
        <time>2015-07-12T13:26:31Z</time>
      </trkpt>
      <trkpt lat="48.4199" lon="7.35605">
        <ele>775</ele>
        <time>2015-07-12T13:26:44Z</time>
      </trkpt>
      <trkpt lat="48.41994" lon="7.356">
        <ele>775</ele>
        <time>2015-07-12T13:26:53Z</time>
      </trkpt>
      <trkpt lat="48.42013" lon="7.3559">
        <ele>777</ele>
        <time>2015-07-12T13:27:04Z</time>
      </trkpt>
      <trkpt lat="48.42053" lon="7.35581">
        <ele>772</ele>
        <time>2015-07-12T13:27:25Z</time>
      </trkpt>
      <trkpt lat="48.42054" lon="7.35588">
        <ele>771</ele>
        <time>2015-07-12T13:27:28Z</time>
      </trkpt>
      <trkpt lat="48.42048" lon="7.356">
        <ele>765</ele>
        <time>2015-07-12T13:27:37Z</time>
      </trkpt>
      <trkpt lat="48.42058" lon="7.35635">
        <ele>764</ele>
        <time>2015-07-12T13:27:55Z</time>
      </trkpt>
      <trkpt lat="48.42059" lon="7.35643">
        <ele>762</ele>
        <time>2015-07-12T13:27:59Z</time>
      </trkpt>
      <trkpt lat="48.42062" lon="7.35655">
        <ele>759</ele>
        <time>2015-07-12T13:28:20Z</time>
      </trkpt>
      <trkpt lat="48.42062" lon="7.35655">
        <ele>759</ele>
        <time>2015-07-12T13:28:21Z</time>
      </trkpt>
      <trkpt lat="48.42062" lon="7.35656">
        <ele>759</ele>
        <time>2015-07-12T13:28:32Z</time>
      </trkpt>
      <trkpt lat="48.42062" lon="7.35656">
        <ele>759</ele>
        <time>2015-07-12T13:28:53Z</time>
      </trkpt>
      <trkpt lat="48.42062" lon="7.35656">
        <ele>759</ele>
        <time>2015-07-12T13:29:01Z</time>
      </trkpt>
      <trkpt lat="48.42064" lon="7.35662">
        <ele>760</ele>
        <time>2015-07-12T13:29:06Z</time>
      </trkpt>
      <trkpt lat="48.42074" lon="7.35706">
        <ele>766</ele>
        <time>2015-07-12T13:29:18Z</time>
      </trkpt>
      <trkpt lat="48.42074" lon="7.35734">
        <ele>751</ele>
        <time>2015-07-12T13:29:28Z</time>
      </trkpt>
      <trkpt lat="48.42072" lon="7.35768">
        <ele>748</ele>
        <time>2015-07-12T13:29:38Z</time>
      </trkpt>
      <trkpt lat="48.42067" lon="7.35795">
        <ele>752</ele>
        <time>2015-07-12T13:29:49Z</time>
      </trkpt>
      <trkpt lat="48.42066" lon="7.3582">
        <ele>750</ele>
        <time>2015-07-12T13:30:03Z</time>
      </trkpt>
      <trkpt lat="48.42053" lon="7.35837">
        <ele>751</ele>
        <time>2015-07-12T13:30:14Z</time>
      </trkpt>
      <trkpt lat="48.42046" lon="7.35848">
        <ele>750</ele>
        <time>2015-07-12T13:30:24Z</time>
      </trkpt>
      <trkpt lat="48.42037" lon="7.35863">
        <ele>746</ele>
        <time>2015-07-12T13:30:34Z</time>
      </trkpt>
      <trkpt lat="48.42024" lon="7.35881">
        <ele>742</ele>
        <time>2015-07-12T13:30:46Z</time>
      </trkpt>
      <trkpt lat="48.42002" lon="7.35905">
        <ele>750</ele>
        <time>2015-07-12T13:31:07Z</time>
      </trkpt>
      <trkpt lat="48.41998" lon="7.35907">
        <ele>751</ele>
        <time>2015-07-12T13:31:09Z</time>
      </trkpt>
      <trkpt lat="48.41979" lon="7.35925">
        <ele>743</ele>
        <time>2015-07-12T13:31:20Z</time>
      </trkpt>
      <trkpt lat="48.41951" lon="7.35955">
        <ele>738</ele>
        <time>2015-07-12T13:31:42Z</time>
      </trkpt>
      <trkpt lat="48.41948" lon="7.35959">
        <ele>738</ele>
        <time>2015-07-12T13:31:45Z</time>
      </trkpt>
      <trkpt lat="48.41927" lon="7.35984">
        <ele>739</ele>
        <time>2015-07-12T13:32:05Z</time>
      </trkpt>
      <trkpt lat="48.41926" lon="7.36004">
        <ele>738</ele>
        <time>2015-07-12T13:32:15Z</time>
      </trkpt>
      <trkpt lat="48.41929" lon="7.3602">
        <ele>737</ele>
        <time>2015-07-12T13:32:24Z</time>
      </trkpt>
      <trkpt lat="48.4192" lon="7.36043">
        <ele>739</ele>
        <time>2015-07-12T13:32:36Z</time>
      </trkpt>
      <trkpt lat="48.41921" lon="7.36069">
        <ele>737</ele>
        <time>2015-07-12T13:32:48Z</time>
      </trkpt>
      <trkpt lat="48.41924" lon="7.36095">
        <ele>734</ele>
        <time>2015-07-12T13:33:02Z</time>
      </trkpt>
      <trkpt lat="48.41938" lon="7.36132">
        <ele>731</ele>
        <time>2015-07-12T13:33:27Z</time>
      </trkpt>
      <trkpt lat="48.4194" lon="7.36136">
        <ele>732</ele>
        <time>2015-07-12T13:33:29Z</time>
      </trkpt>
      <trkpt lat="48.41949" lon="7.36156">
        <ele>735</ele>
        <time>2015-07-12T13:33:42Z</time>
      </trkpt>
      <trkpt lat="48.41965" lon="7.36184">
        <ele>736</ele>
        <time>2015-07-12T13:33:56Z</time>
      </trkpt>
      <trkpt lat="48.41976" lon="7.36208">
        <ele>731</ele>
        <time>2015-07-12T13:34:10Z</time>
      </trkpt>
      <trkpt lat="48.41984" lon="7.36219">
        <ele>730</ele>
        <time>2015-07-12T13:34:17Z</time>
      </trkpt>
      <trkpt lat="48.41995" lon="7.36235">
        <ele>730</ele>
        <time>2015-07-12T13:34:29Z</time>
      </trkpt>
      <trkpt lat="48.42004" lon="7.36254">
        <ele>729</ele>
        <time>2015-07-12T13:34:41Z</time>
      </trkpt>
      <trkpt lat="48.4203" lon="7.36265">
        <ele>733</ele>
        <time>2015-07-12T13:35:00Z</time>
      </trkpt>
      <trkpt lat="48.42041" lon="7.36267">
        <ele>737</ele>
        <time>2015-07-12T13:35:13Z</time>
      </trkpt>
      <trkpt lat="48.42045" lon="7.3627">
        <ele>734</ele>
        <time>2015-07-12T13:35:16Z</time>
      </trkpt>
      <trkpt lat="48.42067" lon="7.36275">
        <ele>732</ele>
        <time>2015-07-12T13:35:30Z</time>
      </trkpt>
      <trkpt lat="48.42077" lon="7.36276">
        <ele>735</ele>
        <time>2015-07-12T13:35:37Z</time>
      </trkpt>
      <trkpt lat="48.42094" lon="7.36283">
        <ele>736</ele>
        <time>2015-07-12T13:35:48Z</time>
      </trkpt>
      <trkpt lat="48.42112" lon="7.36286">
        <ele>747</ele>
        <time>2015-07-12T13:35:59Z</time>
      </trkpt>
      <trkpt lat="48.42133" lon="7.36303">
        <ele>756</ele>
        <time>2015-07-12T13:36:18Z</time>
      </trkpt>
      <trkpt lat="48.42137" lon="7.36304">
        <ele>756</ele>
        <time>2015-07-12T13:36:21Z</time>
      </trkpt>
      <trkpt lat="48.42145" lon="7.3631">
        <ele>756</ele>
        <time>2015-07-12T13:36:37Z</time>
      </trkpt>
      <trkpt lat="48.42149" lon="7.36318">
        <ele>756</ele>
        <time>2015-07-12T13:36:47Z</time>
      </trkpt>
      <trkpt lat="48.42154" lon="7.36342">
        <ele>756</ele>
        <time>2015-07-12T13:36:57Z</time>
      </trkpt>
      <trkpt lat="48.42162" lon="7.36368">
        <ele>756</ele>
        <time>2015-07-12T13:37:09Z</time>
      </trkpt>
      <trkpt lat="48.42171" lon="7.36386">
        <ele>755</ele>
        <time>2015-07-12T13:37:19Z</time>
      </trkpt>
      <trkpt lat="48.42186" lon="7.36416">
        <ele>757</ele>
        <time>2015-07-12T13:37:34Z</time>
      </trkpt>
      <trkpt lat="48.4219" lon="7.36428">
        <ele>756</ele>
        <time>2015-07-12T13:37:41Z</time>
      </trkpt>
      <trkpt lat="48.422" lon="7.36468">
        <ele>754</ele>
        <time>2015-07-12T13:38:02Z</time>
      </trkpt>
      <trkpt lat="48.42208" lon="7.36478">
        <ele>753</ele>
        <time>2015-07-12T13:38:09Z</time>
      </trkpt>
      <trkpt lat="48.42214" lon="7.36493">
        <ele>749</ele>
        <time>2015-07-12T13:38:16Z</time>
      </trkpt>
      <trkpt lat="48.42222" lon="7.36506">
        <ele>752</ele>
        <time>2015-07-12T13:38:25Z</time>
      </trkpt>
      <trkpt lat="48.42231" lon="7.36518">
        <ele>750</ele>
        <time>2015-07-12T13:38:36Z</time>
      </trkpt>
      <trkpt lat="48.42232" lon="7.3656">
        <ele>740</ele>
        <time>2015-07-12T13:38:55Z</time>
      </trkpt>
      <trkpt lat="48.42232" lon="7.36565">
        <ele>739</ele>
        <time>2015-07-12T13:38:58Z</time>
      </trkpt>
      <trkpt lat="48.42253" lon="7.36594">
        <ele>729</ele>
        <time>2015-07-12T13:39:15Z</time>
      </trkpt>
      <trkpt lat="48.42259" lon="7.36604">
        <ele>728</ele>
        <time>2015-07-12T13:39:20Z</time>
      </trkpt>
      <trkpt lat="48.4228" lon="7.36638">
        <ele>726</ele>
        <time>2015-07-12T13:39:41Z</time>
      </trkpt>
      <trkpt lat="48.42281" lon="7.36639">
        <ele>725</ele>
        <time>2015-07-12T13:39:42Z</time>
      </trkpt>
      <trkpt lat="48.4229" lon="7.36653">
        <ele>728</ele>
        <time>2015-07-12T13:39:53Z</time>
      </trkpt>
      <trkpt lat="48.42302" lon="7.3667">
        <ele>729</ele>
        <time>2015-07-12T13:40:04Z</time>
      </trkpt>
      <trkpt lat="48.42313" lon="7.36687">
        <ele>733</ele>
        <time>2015-07-12T13:40:15Z</time>
      </trkpt>
      <trkpt lat="48.42322" lon="7.36708">
        <ele>727</ele>
        <time>2015-07-12T13:40:26Z</time>
      </trkpt>
      <trkpt lat="48.42333" lon="7.36741">
        <ele>724</ele>
        <time>2015-07-12T13:40:42Z</time>
      </trkpt>
      <trkpt lat="48.42342" lon="7.36753">
        <ele>727</ele>
        <time>2015-07-12T13:40:49Z</time>
      </trkpt>
      <trkpt lat="48.42368" lon="7.36784">
        <ele>727</ele>
        <time>2015-07-12T13:41:09Z</time>
      </trkpt>
      <trkpt lat="48.42369" lon="7.36785">
        <ele>728</ele>
        <time>2015-07-12T13:41:10Z</time>
      </trkpt>
      <trkpt lat="48.42387" lon="7.36805">
        <ele>707</ele>
        <time>2015-07-12T13:41:25Z</time>
      </trkpt>
      <trkpt lat="48.42398" lon="7.36803">
        <ele>707</ele>
        <time>2015-07-12T13:41:33Z</time>
      </trkpt>
      <trkpt lat="48.42412" lon="7.36816">
        <ele>712</ele>
        <time>2015-07-12T13:41:52Z</time>
      </trkpt>
      <trkpt lat="48.42413" lon="7.36818">
        <ele>711</ele>
        <time>2015-07-12T13:41:57Z</time>
      </trkpt>
      <trkpt lat="48.42434" lon="7.3683">
        <ele>708</ele>
        <time>2015-07-12T13:42:11Z</time>
      </trkpt>
      <trkpt lat="48.42444" lon="7.36836">
        <ele>710</ele>
        <time>2015-07-12T13:42:18Z</time>
      </trkpt>
      <trkpt lat="48.4246" lon="7.36859">
        <ele>712</ele>
        <time>2015-07-12T13:42:30Z</time>
      </trkpt>
      <trkpt lat="48.42476" lon="7.36867">
        <ele>720</ele>
        <time>2015-07-12T13:42:40Z</time>
      </trkpt>
      <trkpt lat="48.425" lon="7.36912">
        <ele>726</ele>
        <time>2015-07-12T13:42:57Z</time>
      </trkpt>
      <trkpt lat="48.42508" lon="7.36941">
        <ele>723</ele>
        <time>2015-07-12T13:43:11Z</time>
      </trkpt>
      <trkpt lat="48.42511" lon="7.36948">
        <ele>724</ele>
        <time>2015-07-12T13:43:15Z</time>
      </trkpt>
      <trkpt lat="48.42528" lon="7.36976">
        <ele>721</ele>
        <time>2015-07-12T13:43:35Z</time>
      </trkpt>
      <trkpt lat="48.42543" lon="7.36994">
        <ele>702</ele>
        <time>2015-07-12T13:43:47Z</time>
      </trkpt>
      <trkpt lat="48.42547" lon="7.37009">
        <ele>699</ele>
        <time>2015-07-12T13:43:56Z</time>
      </trkpt>
      <trkpt lat="48.42556" lon="7.37036">
        <ele>698</ele>
        <time>2015-07-12T13:44:08Z</time>
      </trkpt>
      <trkpt lat="48.42563" lon="7.37051">
        <ele>698</ele>
        <time>2015-07-12T13:44:18Z</time>
      </trkpt>
      <trkpt lat="48.42572" lon="7.37073">
        <ele>697</ele>
        <time>2015-07-12T13:44:29Z</time>
      </trkpt>
      <trkpt lat="48.42585" lon="7.37095">
        <ele>694</ele>
        <time>2015-07-12T13:44:46Z</time>
      </trkpt>
      <trkpt lat="48.42587" lon="7.37094">
        <ele>696</ele>
        <time>2015-07-12T13:44:58Z</time>
      </trkpt>
      <trkpt lat="48.42589" lon="7.371">
        <ele>696</ele>
        <time>2015-07-12T13:45:08Z</time>
      </trkpt>
      <trkpt lat="48.42594" lon="7.37116">
        <ele>694</ele>
        <time>2015-07-12T13:45:16Z</time>
      </trkpt>
      <trkpt lat="48.42599" lon="7.37112">
        <ele>698</ele>
        <time>2015-07-12T13:45:23Z</time>
      </trkpt>
      <trkpt lat="48.42606" lon="7.37112">
        <ele>699</ele>
        <time>2015-07-12T13:45:34Z</time>
      </trkpt>
      <trkpt lat="48.426" lon="7.37142">
        <ele>698</ele>
        <time>2015-07-12T13:45:51Z</time>
      </trkpt>
      <trkpt lat="48.42592" lon="7.37174">
        <ele>698</ele>
        <time>2015-07-12T13:46:06Z</time>
      </trkpt>
      <trkpt lat="48.42589" lon="7.37174">
        <ele>698</ele>
        <time>2015-07-12T13:46:07Z</time>
      </trkpt>
      <trkpt lat="48.42581" lon="7.37179">
        <ele>696</ele>
        <time>2015-07-12T13:46:19Z</time>
      </trkpt>
      <trkpt lat="48.42576" lon="7.37176">
        <ele>686</ele>
        <time>2015-07-12T13:46:44Z</time>
      </trkpt>
      <trkpt lat="48.42576" lon="7.37176">
        <ele>686</ele>
        <time>2015-07-12T13:46:46Z</time>
      </trkpt>
      <trkpt lat="48.42576" lon="7.37176">
        <ele>686</ele>
        <time>2015-07-12T13:47:04Z</time>
      </trkpt>
      <trkpt lat="48.42574" lon="7.37194">
        <ele>683</ele>
        <time>2015-07-12T13:47:21Z</time>
      </trkpt>
      <trkpt lat="48.42578" lon="7.37224">
        <ele>686</ele>
        <time>2015-07-12T13:47:35Z</time>
      </trkpt>
      <trkpt lat="48.42581" lon="7.37236">
        <ele>690</ele>
        <time>2015-07-12T13:47:41Z</time>
      </trkpt>
      <trkpt lat="48.4258" lon="7.37261">
        <ele>694</ele>
        <time>2015-07-12T13:47:52Z</time>
      </trkpt>
      <trkpt lat="48.42571" lon="7.37294">
        <ele>694</ele>
        <time>2015-07-12T13:48:07Z</time>
      </trkpt>
      <trkpt lat="48.42567" lon="7.37313">
        <ele>692</ele>
        <time>2015-07-12T13:48:16Z</time>
      </trkpt>
      <trkpt lat="48.42562" lon="7.37338">
        <ele>694</ele>
        <time>2015-07-12T13:48:29Z</time>
      </trkpt>
      <trkpt lat="48.42551" lon="7.37358">
        <ele>701</ele>
        <time>2015-07-12T13:48:40Z</time>
      </trkpt>
      <trkpt lat="48.42533" lon="7.37402">
        <ele>702</ele>
        <time>2015-07-12T13:48:57Z</time>
      </trkpt>
      <trkpt lat="48.42522" lon="7.37425">
        <ele>701</ele>
        <time>2015-07-12T13:49:10Z</time>
      </trkpt>
      <trkpt lat="48.4251" lon="7.37436">
        <ele>699</ele>
        <time>2015-07-12T13:49:17Z</time>
      </trkpt>
      <trkpt lat="48.42486" lon="7.37457">
        <ele>695</ele>
        <time>2015-07-12T13:49:35Z</time>
      </trkpt>
      <trkpt lat="48.42482" lon="7.37464">
        <ele>699</ele>
        <time>2015-07-12T13:49:41Z</time>
      </trkpt>
      <trkpt lat="48.42472" lon="7.37469">
        <ele>701</ele>
        <time>2015-07-12T13:49:49Z</time>
      </trkpt>
      <trkpt lat="48.4245" lon="7.37492">
        <ele>699</ele>
        <time>2015-07-12T13:50:07Z</time>
      </trkpt>
      <trkpt lat="48.42445" lon="7.37495">
        <ele>702</ele>
        <time>2015-07-12T13:50:12Z</time>
      </trkpt>
      <trkpt lat="48.4241" lon="7.37493">
        <ele>704</ele>
        <time>2015-07-12T13:50:30Z</time>
      </trkpt>
      <trkpt lat="48.42397" lon="7.37498">
        <ele>703</ele>
        <time>2015-07-12T13:50:43Z</time>
      </trkpt>
      <trkpt lat="48.42386" lon="7.37501">
        <ele>705</ele>
        <time>2015-07-12T13:50:51Z</time>
      </trkpt>
      <trkpt lat="48.42367" lon="7.37509">
        <ele>705</ele>
        <time>2015-07-12T13:51:03Z</time>
      </trkpt>
      <trkpt lat="48.42352" lon="7.37516">
        <ele>707</ele>
        <time>2015-07-12T13:51:15Z</time>
      </trkpt>
      <trkpt lat="48.42347" lon="7.37514">
        <ele>713</ele>
        <time>2015-07-12T13:51:20Z</time>
      </trkpt>
      <trkpt lat="48.42341" lon="7.37522">
        <ele>711</ele>
        <time>2015-07-12T13:51:31Z</time>
      </trkpt>
      <trkpt lat="48.42317" lon="7.37534">
        <ele>710</ele>
        <time>2015-07-12T13:51:52Z</time>
      </trkpt>
      <trkpt lat="48.42313" lon="7.37534">
        <ele>707</ele>
        <time>2015-07-12T13:51:56Z</time>
      </trkpt>
      <trkpt lat="48.42305" lon="7.3754">
        <ele>695</ele>
        <time>2015-07-12T13:52:15Z</time>
      </trkpt>
      <trkpt lat="48.42303" lon="7.37544">
        <ele>692</ele>
        <time>2015-07-12T13:52:23Z</time>
      </trkpt>
      <trkpt lat="48.42297" lon="7.37547">
        <ele>692</ele>
        <time>2015-07-12T13:52:33Z</time>
      </trkpt>
      <trkpt lat="48.42293" lon="7.37548">
        <ele>692</ele>
        <time>2015-07-12T13:52:45Z</time>
      </trkpt>
      <trkpt lat="48.42266" lon="7.3756">
        <ele>693</ele>
        <time>2015-07-12T13:53:00Z</time>
      </trkpt>
      <trkpt lat="48.42254" lon="7.37575">
        <ele>689</ele>
        <time>2015-07-12T13:53:11Z</time>
      </trkpt>
      <trkpt lat="48.42242" lon="7.376">
        <ele>690</ele>
        <time>2015-07-12T13:53:32Z</time>
      </trkpt>
      <trkpt lat="48.4224" lon="7.37602">
        <ele>693</ele>
        <time>2015-07-12T13:53:34Z</time>
      </trkpt>
      <trkpt lat="48.42219" lon="7.37637">
        <ele>687</ele>
        <time>2015-07-12T13:53:56Z</time>
      </trkpt>
      <trkpt lat="48.42206" lon="7.37653">
        <ele>684</ele>
        <time>2015-07-12T13:54:06Z</time>
      </trkpt>
      <trkpt lat="48.42195" lon="7.37667">
        <ele>685</ele>
        <time>2015-07-12T13:54:14Z</time>
      </trkpt>
      <trkpt lat="48.42182" lon="7.37695">
        <ele>689</ele>
        <time>2015-07-12T13:54:29Z</time>
      </trkpt>
      <trkpt lat="48.42174" lon="7.37741">
        <ele>694</ele>
        <time>2015-07-12T13:54:52Z</time>
      </trkpt>
      <trkpt lat="48.42173" lon="7.37744">
        <ele>694</ele>
        <time>2015-07-12T13:54:54Z</time>
      </trkpt>
      <trkpt lat="48.42156" lon="7.3778">
        <ele>689</ele>
        <time>2015-07-12T13:55:13Z</time>
      </trkpt>
      <trkpt lat="48.4215" lon="7.37791">
        <ele>693</ele>
        <time>2015-07-12T13:55:19Z</time>
      </trkpt>
      <trkpt lat="48.42143" lon="7.3782">
        <ele>690</ele>
        <time>2015-07-12T13:55:32Z</time>
      </trkpt>
      <trkpt lat="48.42137" lon="7.3785">
        <ele>689</ele>
        <time>2015-07-12T13:55:46Z</time>
      </trkpt>
      <trkpt lat="48.4213" lon="7.3788">
        <ele>690</ele>
        <time>2015-07-12T13:56:00Z</time>
      </trkpt>
      <trkpt lat="48.42126" lon="7.379">
        <ele>690</ele>
        <time>2015-07-12T13:56:09Z</time>
      </trkpt>
      <trkpt lat="48.4212" lon="7.3793">
        <ele>690</ele>
        <time>2015-07-12T13:56:25Z</time>
      </trkpt>
      <trkpt lat="48.42111" lon="7.37962">
        <ele>691</ele>
        <time>2015-07-12T13:56:38Z</time>
      </trkpt>
      <trkpt lat="48.42108" lon="7.37979">
        <ele>689</ele>
        <time>2015-07-12T13:56:46Z</time>
      </trkpt>
      <trkpt lat="48.42102" lon="7.38002">
        <ele>689</ele>
        <time>2015-07-12T13:56:58Z</time>
      </trkpt>
      <trkpt lat="48.421" lon="7.38031">
        <ele>690</ele>
        <time>2015-07-12T13:57:10Z</time>
      </trkpt>
      <trkpt lat="48.42089" lon="7.38075">
        <ele>692</ele>
        <time>2015-07-12T13:57:27Z</time>
      </trkpt>
      <trkpt lat="48.42085" lon="7.38109">
        <ele>695</ele>
        <time>2015-07-12T13:57:43Z</time>
      </trkpt>
      <trkpt lat="48.42076" lon="7.38137">
        <ele>698</ele>
        <time>2015-07-12T13:57:58Z</time>
      </trkpt>
      <trkpt lat="48.42075" lon="7.38148">
        <ele>698</ele>
        <time>2015-07-12T13:58:03Z</time>
      </trkpt>
      <trkpt lat="48.42077" lon="7.38181">
        <ele>697</ele>
        <time>2015-07-12T13:58:16Z</time>
      </trkpt>
      <trkpt lat="48.42081" lon="7.38233">
        <ele>700</ele>
        <time>2015-07-12T13:58:37Z</time>
      </trkpt>
      <trkpt lat="48.42081" lon="7.38243">
        <ele>699</ele>
        <time>2015-07-12T13:58:41Z</time>
      </trkpt>
      <trkpt lat="48.42085" lon="7.38272">
        <ele>696</ele>
        <time>2015-07-12T13:58:55Z</time>
      </trkpt>
      <trkpt lat="48.42092" lon="7.38295">
        <ele>694</ele>
        <time>2015-07-12T13:59:07Z</time>
      </trkpt>
      <trkpt lat="48.421" lon="7.38331">
        <ele>692</ele>
        <time>2015-07-12T13:59:22Z</time>
      </trkpt>
      <trkpt lat="48.42108" lon="7.3837">
        <ele>691</ele>
        <time>2015-07-12T13:59:40Z</time>
      </trkpt>
      <trkpt lat="48.42111" lon="7.38379">
        <ele>689</ele>
        <time>2015-07-12T13:59:45Z</time>
      </trkpt>
      <trkpt lat="48.42115" lon="7.38394">
        <ele>690</ele>
        <time>2015-07-12T13:59:53Z</time>
      </trkpt>
      <trkpt lat="48.42121" lon="7.3842">
        <ele>697</ele>
        <time>2015-07-12T14:00:09Z</time>
      </trkpt>
      <trkpt lat="48.42124" lon="7.38445">
        <ele>697</ele>
        <time>2015-07-12T14:00:20Z</time>
      </trkpt>
      <trkpt lat="48.42122" lon="7.38485">
        <ele>702</ele>
        <time>2015-07-12T14:00:37Z</time>
      </trkpt>
      <trkpt lat="48.42123" lon="7.38493">
        <ele>703</ele>
        <time>2015-07-12T14:00:41Z</time>
      </trkpt>
      <trkpt lat="48.42126" lon="7.38537">
        <ele>705</ele>
        <time>2015-07-12T14:00:59Z</time>
      </trkpt>
      <trkpt lat="48.42127" lon="7.38547">
        <ele>705</ele>
        <time>2015-07-12T14:01:03Z</time>
      </trkpt>
      <trkpt lat="48.42133" lon="7.38592">
        <ele>711</ele>
        <time>2015-07-12T14:01:22Z</time>
      </trkpt>
      <trkpt lat="48.4213" lon="7.38602">
        <ele>714</ele>
        <time>2015-07-12T14:01:27Z</time>
      </trkpt>
      <trkpt lat="48.42125" lon="7.38631">
        <ele>708</ele>
        <time>2015-07-12T14:01:40Z</time>
      </trkpt>
      <trkpt lat="48.42121" lon="7.38649">
        <ele>711</ele>
        <time>2015-07-12T14:01:50Z</time>
      </trkpt>
      <trkpt lat="48.42115" lon="7.38675">
        <ele>713</ele>
        <time>2015-07-12T14:02:02Z</time>
      </trkpt>
      <trkpt lat="48.421" lon="7.38713">
        <ele>704</ele>
        <time>2015-07-12T14:02:21Z</time>
      </trkpt>
      <trkpt lat="48.42089" lon="7.38733">
        <ele>702</ele>
        <time>2015-07-12T14:02:32Z</time>
      </trkpt>
      <trkpt lat="48.42083" lon="7.38745">
        <ele>700</ele>
        <time>2015-07-12T14:02:38Z</time>
      </trkpt>
      <trkpt lat="48.42069" lon="7.38768">
        <ele>699</ele>
        <time>2015-07-12T14:02:52Z</time>
      </trkpt>
      <trkpt lat="48.42062" lon="7.38783">
        <ele>700</ele>
        <time>2015-07-12T14:03:03Z</time>
      </trkpt>
      <trkpt lat="48.42055" lon="7.38799">
        <ele>699</ele>
        <time>2015-07-12T14:03:12Z</time>
      </trkpt>
      <trkpt lat="48.42033" lon="7.38831">
        <ele>696</ele>
        <time>2015-07-12T14:03:28Z</time>
      </trkpt>
      <trkpt lat="48.42027" lon="7.38847">
        <ele>694</ele>
        <time>2015-07-12T14:03:36Z</time>
      </trkpt>
      <trkpt lat="48.4202" lon="7.38868">
        <ele>695</ele>
        <time>2015-07-12T14:03:47Z</time>
      </trkpt>
      <trkpt lat="48.42009" lon="7.38881">
        <ele>698</ele>
        <time>2015-07-12T14:03:58Z</time>
      </trkpt>
      <trkpt lat="48.42" lon="7.38898">
        <ele>703</ele>
        <time>2015-07-12T14:04:10Z</time>
      </trkpt>
      <trkpt lat="48.41994" lon="7.38921">
        <ele>701</ele>
        <time>2015-07-12T14:04:22Z</time>
      </trkpt>
      <trkpt lat="48.4198" lon="7.38966">
        <ele>700</ele>
        <time>2015-07-12T14:04:43Z</time>
      </trkpt>
      <trkpt lat="48.41981" lon="7.38998">
        <ele>700</ele>
        <time>2015-07-12T14:04:58Z</time>
      </trkpt>
      <trkpt lat="48.41982" lon="7.39002">
        <ele>703</ele>
        <time>2015-07-12T14:05:00Z</time>
      </trkpt>
      <trkpt lat="48.41983" lon="7.39024">
        <ele>704</ele>
        <time>2015-07-12T14:05:11Z</time>
      </trkpt>
      <trkpt lat="48.41985" lon="7.39059">
        <ele>703</ele>
        <time>2015-07-12T14:05:33Z</time>
      </trkpt>
      <trkpt lat="48.41986" lon="7.39059">
        <ele>703</ele>
        <time>2015-07-12T14:05:36Z</time>
      </trkpt>
      <trkpt lat="48.41995" lon="7.39083">
        <ele>709</ele>
        <time>2015-07-12T14:05:52Z</time>
      </trkpt>
      <trkpt lat="48.42003" lon="7.39093">
        <ele>708</ele>
        <time>2015-07-12T14:06:00Z</time>
      </trkpt>
      <trkpt lat="48.42031" lon="7.39106">
        <ele>713</ele>
        <time>2015-07-12T14:06:21Z</time>
      </trkpt>
      <trkpt lat="48.4204" lon="7.39111">
        <ele>714</ele>
        <time>2015-07-12T14:06:31Z</time>
      </trkpt>
      <trkpt lat="48.42042" lon="7.39112">
        <ele>716</ele>
        <time>2015-07-12T14:06:38Z</time>
      </trkpt>
      <trkpt lat="48.42056" lon="7.39116">
        <ele>713</ele>
        <time>2015-07-12T14:06:52Z</time>
      </trkpt>
      <trkpt lat="48.42074" lon="7.39119">
        <ele>708</ele>
        <time>2015-07-12T14:07:02Z</time>
      </trkpt>
      <trkpt lat="48.42089" lon="7.39126">
        <ele>709</ele>
        <time>2015-07-12T14:07:14Z</time>
      </trkpt>
      <trkpt lat="48.421" lon="7.39135">
        <ele>711</ele>
        <time>2015-07-12T14:07:26Z</time>
      </trkpt>
      <trkpt lat="48.42109" lon="7.39149">
        <ele>716</ele>
        <time>2015-07-12T14:07:36Z</time>
      </trkpt>
      <trkpt lat="48.4213" lon="7.39165">
        <ele>720</ele>
        <time>2015-07-12T14:07:54Z</time>
      </trkpt>
      <trkpt lat="48.42134" lon="7.39168">
        <ele>721</ele>
        <time>2015-07-12T14:08:01Z</time>
      </trkpt>
      <trkpt lat="48.42155" lon="7.39188">
        <ele>719</ele>
        <time>2015-07-12T14:08:13Z</time>
      </trkpt>
      <trkpt lat="48.4218" lon="7.3922">
        <ele>724</ele>
        <time>2015-07-12T14:08:28Z</time>
      </trkpt>
      <trkpt lat="48.42205" lon="7.39253">
        <ele>722</ele>
        <time>2015-07-12T14:08:46Z</time>
      </trkpt>
      <trkpt lat="48.4222" lon="7.39273">
        <ele>723</ele>
        <time>2015-07-12T14:08:58Z</time>
      </trkpt>
      <trkpt lat="48.42228" lon="7.39277">
        <ele>722</ele>
        <time>2015-07-12T14:09:05Z</time>
      </trkpt>
      <trkpt lat="48.42239" lon="7.39288">
        <ele>721</ele>
        <time>2015-07-12T14:09:15Z</time>
      </trkpt>
      <trkpt lat="48.42241" lon="7.39313">
        <ele>719</ele>
        <time>2015-07-12T14:09:26Z</time>
      </trkpt>
      <trkpt lat="48.42246" lon="7.39345">
        <ele>715</ele>
        <time>2015-07-12T14:09:42Z</time>
      </trkpt>
      <trkpt lat="48.42246" lon="7.39348">
        <ele>715</ele>
        <time>2015-07-12T14:09:53Z</time>
      </trkpt>
      <trkpt lat="48.42251" lon="7.3937">
        <ele>716</ele>
        <time>2015-07-12T14:10:05Z</time>
      </trkpt>
      <trkpt lat="48.42258" lon="7.3941">
        <ele>716</ele>
        <time>2015-07-12T14:10:17Z</time>
      </trkpt>
      <trkpt lat="48.42265" lon="7.39461">
        <ele>714</ele>
        <time>2015-07-12T14:10:32Z</time>
      </trkpt>
      <trkpt lat="48.4227" lon="7.39473">
        <ele>715</ele>
        <time>2015-07-12T14:10:38Z</time>
      </trkpt>
      <trkpt lat="48.42268" lon="7.39515">
        <ele>714</ele>
        <time>2015-07-12T14:10:54Z</time>
      </trkpt>
      <trkpt lat="48.42266" lon="7.39541">
        <ele>716</ele>
        <time>2015-07-12T14:11:06Z</time>
      </trkpt>
      <trkpt lat="48.42265" lon="7.39565">
        <ele>716</ele>
        <time>2015-07-12T14:11:17Z</time>
      </trkpt>
      <trkpt lat="48.4226" lon="7.39614">
        <ele>718</ele>
        <time>2015-07-12T14:11:35Z</time>
      </trkpt>
      <trkpt lat="48.42259" lon="7.39619">
        <ele>719</ele>
        <time>2015-07-12T14:11:38Z</time>
      </trkpt>
      <trkpt lat="48.42258" lon="7.39654">
        <ele>717</ele>
        <time>2015-07-12T14:11:54Z</time>
      </trkpt>
      <trkpt lat="48.42258" lon="7.39681">
        <ele>720</ele>
        <time>2015-07-12T14:12:09Z</time>
      </trkpt>
      <trkpt lat="48.42257" lon="7.39702">
        <ele>720</ele>
        <time>2015-07-12T14:12:20Z</time>
      </trkpt>
      <trkpt lat="48.42256" lon="7.39721">
        <ele>719</ele>
        <time>2015-07-12T14:12:31Z</time>
      </trkpt>
      <trkpt lat="48.42258" lon="7.39746">
        <ele>720</ele>
        <time>2015-07-12T14:12:44Z</time>
      </trkpt>
      <trkpt lat="48.42259" lon="7.3977">
        <ele>718</ele>
        <time>2015-07-12T14:12:55Z</time>
      </trkpt>
      <trkpt lat="48.42262" lon="7.39803">
        <ele>721</ele>
        <time>2015-07-12T14:13:07Z</time>
      </trkpt>
      <trkpt lat="48.42263" lon="7.3983">
        <ele>716</ele>
        <time>2015-07-12T14:13:21Z</time>
      </trkpt>
      <trkpt lat="48.42262" lon="7.39848">
        <ele>720</ele>
        <time>2015-07-12T14:13:29Z</time>
      </trkpt>
      <trkpt lat="48.42269" lon="7.39876">
        <ele>720</ele>
        <time>2015-07-12T14:13:42Z</time>
      </trkpt>
      <trkpt lat="48.42279" lon="7.39921">
        <ele>719</ele>
        <time>2015-07-12T14:14:02Z</time>
      </trkpt>
      <trkpt lat="48.42277" lon="7.39937">
        <ele>716</ele>
        <time>2015-07-12T14:14:11Z</time>
      </trkpt>
      <trkpt lat="48.42281" lon="7.39947">
        <ele>717</ele>
        <time>2015-07-12T14:14:18Z</time>
      </trkpt>
      <trkpt lat="48.42288" lon="7.39963">
        <ele>720</ele>
        <time>2015-07-12T14:14:29Z</time>
      </trkpt>
      <trkpt lat="48.42306" lon="7.3999">
        <ele>727</ele>
        <time>2015-07-12T14:14:49Z</time>
      </trkpt>
      <trkpt lat="48.42308" lon="7.39997">
        <ele>724</ele>
        <time>2015-07-12T14:14:53Z</time>
      </trkpt>
      <trkpt lat="48.4231" lon="7.40022">
        <ele>724</ele>
        <time>2015-07-12T14:15:05Z</time>
      </trkpt>
      <trkpt lat="48.42316" lon="7.40034">
        <ele>725</ele>
        <time>2015-07-12T14:15:17Z</time>
      </trkpt>
      <trkpt lat="48.42339" lon="7.40065">
        <ele>729</ele>
        <time>2015-07-12T14:15:40Z</time>
      </trkpt>
      <trkpt lat="48.4234" lon="7.40067">
        <ele>728</ele>
        <time>2015-07-12T14:15:41Z</time>
      </trkpt>
      <trkpt lat="48.42352" lon="7.40084">
        <ele>734</ele>
        <time>2015-07-12T14:16:01Z</time>
      </trkpt>
      <trkpt lat="48.42361" lon="7.40087">
        <ele>739</ele>
        <time>2015-07-12T14:16:11Z</time>
      </trkpt>
      <trkpt lat="48.4237" lon="7.40084">
        <ele>740</ele>
        <time>2015-07-12T14:16:18Z</time>
      </trkpt>
      <trkpt lat="48.42395" lon="7.40077">
        <ele>744</ele>
        <time>2015-07-12T14:16:40Z</time>
      </trkpt>
      <trkpt lat="48.42396" lon="7.40077">
        <ele>744</ele>
        <time>2015-07-12T14:16:42Z</time>
      </trkpt>
      <trkpt lat="48.42416" lon="7.40069">
        <ele>737</ele>
        <time>2015-07-12T14:17:02Z</time>
      </trkpt>
      <trkpt lat="48.42423" lon="7.40054">
        <ele>737</ele>
        <time>2015-07-12T14:17:10Z</time>
      </trkpt>
      <trkpt lat="48.42433" lon="7.4004">
        <ele>735</ele>
        <time>2015-07-12T14:17:20Z</time>
      </trkpt>
      <trkpt lat="48.4245" lon="7.40028">
        <ele>734</ele>
        <time>2015-07-12T14:17:33Z</time>
      </trkpt>
      <trkpt lat="48.42467" lon="7.40008">
        <ele>737</ele>
        <time>2015-07-12T14:17:48Z</time>
      </trkpt>
      <trkpt lat="48.42479" lon="7.39997">
        <ele>736</ele>
        <time>2015-07-12T14:17:58Z</time>
      </trkpt>
      <trkpt lat="48.42498" lon="7.39965">
        <ele>737</ele>
        <time>2015-07-12T14:18:17Z</time>
      </trkpt>
      <trkpt lat="48.42508" lon="7.39955">
        <ele>735</ele>
        <time>2015-07-12T14:18:26Z</time>
      </trkpt>
      <trkpt lat="48.42526" lon="7.39945">
        <ele>739</ele>
        <time>2015-07-12T14:18:37Z</time>
      </trkpt>
      <trkpt lat="48.42548" lon="7.39933">
        <ele>749</ele>
        <time>2015-07-12T14:18:56Z</time>
      </trkpt>
      <trkpt lat="48.42566" lon="7.39941">
        <ele>753</ele>
        <time>2015-07-12T14:19:09Z</time>
      </trkpt>
      <trkpt lat="48.42575" lon="7.39946">
        <ele>756</ele>
        <time>2015-07-12T14:19:17Z</time>
      </trkpt>
      <trkpt lat="48.426" lon="7.39975">
        <ele>748</ele>
        <time>2015-07-12T14:19:35Z</time>
      </trkpt>
      <trkpt lat="48.42613" lon="7.40002">
        <ele>746</ele>
        <time>2015-07-12T14:19:47Z</time>
      </trkpt>
      <trkpt lat="48.42616" lon="7.40005">
        <ele>746</ele>
        <time>2015-07-12T14:19:49Z</time>
      </trkpt>
      <trkpt lat="48.42637" lon="7.40031">
        <ele>753</ele>
        <time>2015-07-12T14:20:12Z</time>
      </trkpt>
      <trkpt lat="48.42638" lon="7.40034">
        <ele>755</ele>
        <time>2015-07-12T14:20:14Z</time>
      </trkpt>
      <trkpt lat="48.42655" lon="7.4005">
        <ele>762</ele>
        <time>2015-07-12T14:20:29Z</time>
      </trkpt>
      <trkpt lat="48.42663" lon="7.40061">
        <ele>760</ele>
        <time>2015-07-12T14:20:38Z</time>
      </trkpt>
      <trkpt lat="48.42671" lon="7.40076">
        <ele>761</ele>
        <time>2015-07-12T14:20:48Z</time>
      </trkpt>
      <trkpt lat="48.42683" lon="7.4009">
        <ele>763</ele>
        <time>2015-07-12T14:21:00Z</time>
      </trkpt>
      <trkpt lat="48.42703" lon="7.40103">
        <ele>762</ele>
        <time>2015-07-12T14:21:15Z</time>
      </trkpt>
      <trkpt lat="48.42718" lon="7.40112">
        <ele>764</ele>
        <time>2015-07-12T14:21:29Z</time>
      </trkpt>
      <trkpt lat="48.42729" lon="7.40117">
        <ele>764</ele>
        <time>2015-07-12T14:21:38Z</time>
      </trkpt>
      <trkpt lat="48.42749" lon="7.40121">
        <ele>765</ele>
        <time>2015-07-12T14:21:53Z</time>
      </trkpt>
      <trkpt lat="48.42759" lon="7.40113">
        <ele>767</ele>
        <time>2015-07-12T14:22:01Z</time>
      </trkpt>
      <trkpt lat="48.42772" lon="7.40108">
        <ele>766</ele>
        <time>2015-07-12T14:22:12Z</time>
      </trkpt>
      <trkpt lat="48.42785" lon="7.40111">
        <ele>764</ele>
        <time>2015-07-12T14:22:24Z</time>
      </trkpt>
      <trkpt lat="48.42795" lon="7.40093">
        <ele>767</ele>
        <time>2015-07-12T14:22:39Z</time>
      </trkpt>
      <trkpt lat="48.42803" lon="7.40073">
        <ele>769</ele>
        <time>2015-07-12T14:22:54Z</time>
      </trkpt>
      <trkpt lat="48.42819" lon="7.40056">
        <ele>767</ele>
        <time>2015-07-12T14:23:07Z</time>
      </trkpt>
      <trkpt lat="48.42826" lon="7.4005">
        <ele>766</ele>
        <time>2015-07-12T14:23:13Z</time>
      </trkpt>
      <trkpt lat="48.42839" lon="7.40038">
        <ele>766</ele>
        <time>2015-07-12T14:23:24Z</time>
      </trkpt>
      <trkpt lat="48.42864" lon="7.40015">
        <ele>762</ele>
        <time>2015-07-12T14:23:41Z</time>
      </trkpt>
      <trkpt lat="48.42873" lon="7.40008">
        <ele>761</ele>
        <time>2015-07-12T14:23:47Z</time>
      </trkpt>
      <trkpt lat="48.42891" lon="7.39992">
        <ele>766</ele>
        <time>2015-07-12T14:24:01Z</time>
      </trkpt>
      <trkpt lat="48.42921" lon="7.39978">
        <ele>769</ele>
        <time>2015-07-12T14:24:20Z</time>
      </trkpt>
      <trkpt lat="48.42932" lon="7.39979">
        <ele>769</ele>
        <time>2015-07-12T14:24:27Z</time>
      </trkpt>
      <trkpt lat="48.42958" lon="7.39977">
        <ele>770</ele>
        <time>2015-07-12T14:24:44Z</time>
      </trkpt>
      <trkpt lat="48.42969" lon="7.39982">
        <ele>771</ele>
        <time>2015-07-12T14:24:51Z</time>
      </trkpt>
      <trkpt lat="48.42991" lon="7.40004">
        <ele>769</ele>
        <time>2015-07-12T14:25:07Z</time>
      </trkpt>
      <trkpt lat="48.42998" lon="7.40011">
        <ele>769</ele>
        <time>2015-07-12T14:25:13Z</time>
      </trkpt>
      <trkpt lat="48.43013" lon="7.40027">
        <ele>769</ele>
        <time>2015-07-12T14:25:25Z</time>
      </trkpt>
      <trkpt lat="48.43027" lon="7.4004">
        <ele>769</ele>
        <time>2015-07-12T14:25:36Z</time>
      </trkpt>
      <trkpt lat="48.43044" lon="7.40055">
        <ele>770</ele>
        <time>2015-07-12T14:25:52Z</time>
      </trkpt>
      <trkpt lat="48.43045" lon="7.40056">
        <ele>770</ele>
        <time>2015-07-12T14:25:58Z</time>
      </trkpt>
      <trkpt lat="48.43064" lon="7.40071">
        <ele>776</ele>
        <time>2015-07-12T14:26:10Z</time>
      </trkpt>
      <trkpt lat="48.4308" lon="7.4009">
        <ele>775</ele>
        <time>2015-07-12T14:26:21Z</time>
      </trkpt>
      <trkpt lat="48.43094" lon="7.40103">
        <ele>776</ele>
        <time>2015-07-12T14:26:32Z</time>
      </trkpt>
      <trkpt lat="48.43105" lon="7.40114">
        <ele>774</ele>
        <time>2015-07-12T14:26:43Z</time>
      </trkpt>
      <trkpt lat="48.43124" lon="7.40119">
        <ele>770</ele>
        <time>2015-07-12T14:26:54Z</time>
      </trkpt>
      <trkpt lat="48.43147" lon="7.40121">
        <ele>773</ele>
        <time>2015-07-12T14:27:10Z</time>
      </trkpt>
      <trkpt lat="48.43168" lon="7.40125">
        <ele>771</ele>
        <time>2015-07-12T14:27:24Z</time>
      </trkpt>
      <trkpt lat="48.43174" lon="7.40125">
        <ele>770</ele>
        <time>2015-07-12T14:27:28Z</time>
      </trkpt>
      <trkpt lat="48.43189" lon="7.40125">
        <ele>771</ele>
        <time>2015-07-12T14:27:39Z</time>
      </trkpt>
      <trkpt lat="48.43219" lon="7.40128">
        <ele>773</ele>
        <time>2015-07-12T14:28:00Z</time>
      </trkpt>
      <trkpt lat="48.43232" lon="7.40143">
        <ele>768</ele>
        <time>2015-07-12T14:28:13Z</time>
      </trkpt>
      <trkpt lat="48.43232" lon="7.40144">
        <ele>768</ele>
        <time>2015-07-12T14:28:16Z</time>
      </trkpt>
      <trkpt lat="48.43255" lon="7.40166">
        <ele>771</ele>
        <time>2015-07-12T14:28:32Z</time>
      </trkpt>
      <trkpt lat="48.43285" lon="7.40185">
        <ele>769</ele>
        <time>2015-07-12T14:28:48Z</time>
      </trkpt>
      <trkpt lat="48.43294" lon="7.40187">
        <ele>768</ele>
        <time>2015-07-12T14:28:53Z</time>
      </trkpt>
      <trkpt lat="48.43312" lon="7.4019">
        <ele>770</ele>
        <time>2015-07-12T14:29:08Z</time>
      </trkpt>
      <trkpt lat="48.43323" lon="7.40194">
        <ele>768</ele>
        <time>2015-07-12T14:29:16Z</time>
      </trkpt>
      <trkpt lat="48.43339" lon="7.40188">
        <ele>770</ele>
        <time>2015-07-12T14:29:29Z</time>
      </trkpt>
      <trkpt lat="48.43363" lon="7.40187">
        <ele>772</ele>
        <time>2015-07-12T14:29:48Z</time>
      </trkpt>
      <trkpt lat="48.4337" lon="7.40187">
        <ele>772</ele>
        <time>2015-07-12T14:29:52Z</time>
      </trkpt>
      <trkpt lat="48.43395" lon="7.40188">
        <ele>768</ele>
        <time>2015-07-12T14:30:11Z</time>
      </trkpt>
      <trkpt lat="48.43402" lon="7.40187">
        <ele>765</ele>
        <time>2015-07-12T14:30:20Z</time>
      </trkpt>
      <trkpt lat="48.43419" lon="7.40197">
        <ele>765</ele>
        <time>2015-07-12T14:30:42Z</time>
      </trkpt>
      <trkpt lat="48.4342" lon="7.40197">
        <ele>765</ele>
        <time>2015-07-12T14:30:44Z</time>
      </trkpt>
      <trkpt lat="48.43443" lon="7.40206">
        <ele>771</ele>
        <time>2015-07-12T14:31:02Z</time>
      </trkpt>
      <trkpt lat="48.43454" lon="7.40209">
        <ele>774</ele>
        <time>2015-07-12T14:31:10Z</time>
      </trkpt>
      <trkpt lat="48.43471" lon="7.40222">
        <ele>761</ele>
        <time>2015-07-12T14:31:22Z</time>
      </trkpt>
      <trkpt lat="48.43497" lon="7.40242">
        <ele>760</ele>
        <time>2015-07-12T14:31:44Z</time>
      </trkpt>
      <trkpt lat="48.43498" lon="7.40247">
        <ele>758</ele>
        <time>2015-07-12T14:31:46Z</time>
      </trkpt>
    </trkseg>
  </trk>
  <trk>
    <name><![CDATA[Sequence 2]]></name>
    <trkseg>
      <trkpt lat="48.43492" lon="7.40249">
        <ele>751</ele>
        <time>2015-07-12T14:36:36Z</time>
      </trkpt>
      <trkpt lat="48.43491" lon="7.40244">
        <ele>749</ele>
        <time>2015-07-12T14:36:41Z</time>
      </trkpt>
      <trkpt lat="48.43482" lon="7.40234">
        <ele>752</ele>
        <time>2015-07-12T14:36:56Z</time>
      </trkpt>
      <trkpt lat="48.43461" lon="7.40229">
        <ele>756</ele>
        <time>2015-07-12T14:37:12Z</time>
      </trkpt>
      <trkpt lat="48.43442" lon="7.40219">
        <ele>757</ele>
        <time>2015-07-12T14:37:27Z</time>
      </trkpt>
      <trkpt lat="48.43433" lon="7.40215">
        <ele>757</ele>
        <time>2015-07-12T14:37:33Z</time>
      </trkpt>
      <trkpt lat="48.4341" lon="7.40205">
        <ele>761</ele>
        <time>2015-07-12T14:37:47Z</time>
      </trkpt>
      <trkpt lat="48.43396" lon="7.40212">
        <ele>760</ele>
        <time>2015-07-12T14:37:59Z</time>
      </trkpt>
      <trkpt lat="48.43386" lon="7.40211">
        <ele>758</ele>
        <time>2015-07-12T14:38:10Z</time>
      </trkpt>
      <trkpt lat="48.43374" lon="7.40207">
        <ele>760</ele>
        <time>2015-07-12T14:38:18Z</time>
      </trkpt>
      <trkpt lat="48.43363" lon="7.40208">
        <ele>760</ele>
        <time>2015-07-12T14:38:29Z</time>
      </trkpt>
      <trkpt lat="48.43353" lon="7.40212">
        <ele>760</ele>
        <time>2015-07-12T14:38:41Z</time>
      </trkpt>
      <trkpt lat="48.43322" lon="7.40207">
        <ele>758</ele>
        <time>2015-07-12T14:38:57Z</time>
      </trkpt>
      <trkpt lat="48.43302" lon="7.40211">
        <ele>762</ele>
        <time>2015-07-12T14:39:09Z</time>
      </trkpt>
      <trkpt lat="48.43286" lon="7.40212">
        <ele>760</ele>
        <time>2015-07-12T14:39:18Z</time>
      </trkpt>
      <trkpt lat="48.43276" lon="7.40212">
        <ele>761</ele>
        <time>2015-07-12T14:39:27Z</time>
      </trkpt>
      <trkpt lat="48.43249" lon="7.40219">
        <ele>763</ele>
        <time>2015-07-12T14:39:47Z</time>
      </trkpt>
      <trkpt lat="48.43242" lon="7.40217">
        <ele>765</ele>
        <time>2015-07-12T14:39:51Z</time>
      </trkpt>
      <trkpt lat="48.43224" lon="7.40215">
        <ele>773</ele>
        <time>2015-07-12T14:40:08Z</time>
      </trkpt>
      <trkpt lat="48.43216" lon="7.40214">
        <ele>772</ele>
        <time>2015-07-12T14:40:16Z</time>
      </trkpt>
      <trkpt lat="48.43206" lon="7.40215">
        <ele>771</ele>
        <time>2015-07-12T14:40:23Z</time>
      </trkpt>
      <trkpt lat="48.43196" lon="7.40224">
        <ele>769</ele>
        <time>2015-07-12T14:40:34Z</time>
      </trkpt>
      <trkpt lat="48.43185" lon="7.40233">
        <ele>770</ele>
        <time>2015-07-12T14:40:45Z</time>
      </trkpt>
      <trkpt lat="48.43157" lon="7.40238">
        <ele>771</ele>
        <time>2015-07-12T14:41:04Z</time>
      </trkpt>
      <trkpt lat="48.43151" lon="7.40239">
        <ele>773</ele>
        <time>2015-07-12T14:41:08Z</time>
      </trkpt>
      <trkpt lat="48.43131" lon="7.40245">
        <ele>780</ele>
        <time>2015-07-12T14:41:24Z</time>
      </trkpt>
      <trkpt lat="48.43122" lon="7.40249">
        <ele>783</ele>
        <time>2015-07-12T14:41:31Z</time>
      </trkpt>
      <trkpt lat="48.43112" lon="7.40258">
        <ele>786</ele>
        <time>2015-07-12T14:41:44Z</time>
      </trkpt>
      <trkpt lat="48.43097" lon="7.40264">
        <ele>787</ele>
        <time>2015-07-12T14:41:54Z</time>
      </trkpt>
      <trkpt lat="48.43074" lon="7.40276">
        <ele>787</ele>
        <time>2015-07-12T14:42:11Z</time>
      </trkpt>
      <trkpt lat="48.43069" lon="7.40279">
        <ele>787</ele>
        <time>2015-07-12T14:42:16Z</time>
      </trkpt>
      <trkpt lat="48.43056" lon="7.40294">
        <ele>787</ele>
        <time>2015-07-12T14:42:37Z</time>
      </trkpt>
      <trkpt lat="48.4306" lon="7.40294">
        <ele>788</ele>
        <time>2015-07-12T14:42:41Z</time>
      </trkpt>
      <trkpt lat="48.43061" lon="7.40296">
        <ele>786</ele>
        <time>2015-07-12T14:42:52Z</time>
      </trkpt>
      <trkpt lat="48.43063" lon="7.40296">
        <ele>786</ele>
        <time>2015-07-12T14:43:03Z</time>
      </trkpt>
      <trkpt lat="48.43062" lon="7.40294">
        <ele>787</ele>
        <time>2015-07-12T14:43:16Z</time>
      </trkpt>
      <trkpt lat="48.43055" lon="7.40288">
        <ele>787</ele>
        <time>2015-07-12T14:43:25Z</time>
      </trkpt>
      <trkpt lat="48.43053" lon="7.40292">
        <ele>789</ele>
        <time>2015-07-12T14:43:37Z</time>
      </trkpt>
      <trkpt lat="48.43053" lon="7.40292">
        <ele>789</ele>
        <time>2015-07-12T14:43:52Z</time>
      </trkpt>
      <trkpt lat="48.43039" lon="7.40288">
        <ele>791</ele>
        <time>2015-07-12T14:44:01Z</time>
      </trkpt>
      <trkpt lat="48.43011" lon="7.4029">
        <ele>792</ele>
        <time>2015-07-12T14:44:19Z</time>
      </trkpt>
      <trkpt lat="48.43003" lon="7.40294">
        <ele>791</ele>
        <time>2015-07-12T14:44:26Z</time>
      </trkpt>
      <trkpt lat="48.42985" lon="7.40302">
        <ele>790</ele>
        <time>2015-07-12T14:44:37Z</time>
      </trkpt>
      <trkpt lat="48.42971" lon="7.40309">
        <ele>792</ele>
        <time>2015-07-12T14:44:48Z</time>
      </trkpt>
      <trkpt lat="48.42941" lon="7.40321">
        <ele>791</ele>
        <time>2015-07-12T14:45:07Z</time>
      </trkpt>
      <trkpt lat="48.42931" lon="7.40324">
        <ele>793</ele>
        <time>2015-07-12T14:45:13Z</time>
      </trkpt>
      <trkpt lat="48.42913" lon="7.40333">
        <ele>799</ele>
        <time>2015-07-12T14:45:29Z</time>
      </trkpt>
      <trkpt lat="48.42906" lon="7.40338">
        <ele>795</ele>
        <time>2015-07-12T14:45:35Z</time>
      </trkpt>
      <trkpt lat="48.4289" lon="7.40348">
        <ele>794</ele>
        <time>2015-07-12T14:45:47Z</time>
      </trkpt>
      <trkpt lat="48.42875" lon="7.40357">
        <ele>796</ele>
        <time>2015-07-12T14:45:56Z</time>
      </trkpt>
      <trkpt lat="48.42854" lon="7.40374">
        <ele>795</ele>
        <time>2015-07-12T14:46:11Z</time>
      </trkpt>
      <trkpt lat="48.42857" lon="7.40387">
        <ele>799</ele>
        <time>2015-07-12T14:46:20Z</time>
      </trkpt>
      <trkpt lat="48.42847" lon="7.40407">
        <ele>799</ele>
        <time>2015-07-12T14:46:32Z</time>
      </trkpt>
      <trkpt lat="48.42833" lon="7.4044">
        <ele>799</ele>
        <time>2015-07-12T14:46:49Z</time>
      </trkpt>
      <trkpt lat="48.4283" lon="7.40469">
        <ele>800</ele>
        <time>2015-07-12T14:47:05Z</time>
      </trkpt>
      <trkpt lat="48.42829" lon="7.40473">
        <ele>800</ele>
        <time>2015-07-12T14:47:06Z</time>
      </trkpt>
      <trkpt lat="48.42825" lon="7.40502">
        <ele>799</ele>
        <time>2015-07-12T14:47:21Z</time>
      </trkpt>
      <trkpt lat="48.42824" lon="7.4053">
        <ele>799</ele>
        <time>2015-07-12T14:47:35Z</time>
      </trkpt>
      <trkpt lat="48.42822" lon="7.4056">
        <ele>803</ele>
        <time>2015-07-12T14:47:50Z</time>
      </trkpt>
      <trkpt lat="48.42818" lon="7.40569">
        <ele>805</ele>
        <time>2015-07-12T14:47:54Z</time>
      </trkpt>
      <trkpt lat="48.42805" lon="7.40619">
        <ele>813</ele>
        <time>2015-07-12T14:48:14Z</time>
      </trkpt>
      <trkpt lat="48.42793" lon="7.40632">
        <ele>809</ele>
        <time>2015-07-12T14:48:25Z</time>
      </trkpt>
      <trkpt lat="48.42794" lon="7.40637">
        <ele>808</ele>
        <time>2015-07-12T14:48:31Z</time>
      </trkpt>
      <trkpt lat="48.42797" lon="7.40657">
        <ele>809</ele>
        <time>2015-07-12T14:48:40Z</time>
      </trkpt>
      <trkpt lat="48.42791" lon="7.40674">
        <ele>811</ele>
        <time>2015-07-12T14:48:50Z</time>
      </trkpt>
      <trkpt lat="48.42791" lon="7.40677">
        <ele>809</ele>
        <time>2015-07-12T14:49:02Z</time>
      </trkpt>
      <trkpt lat="48.42785" lon="7.40705">
        <ele>809</ele>
        <time>2015-07-12T14:49:14Z</time>
      </trkpt>
      <trkpt lat="48.4278" lon="7.40715">
        <ele>811</ele>
        <time>2015-07-12T14:49:23Z</time>
      </trkpt>
      <trkpt lat="48.42779" lon="7.40737">
        <ele>814</ele>
        <time>2015-07-12T14:49:34Z</time>
      </trkpt>
      <trkpt lat="48.42766" lon="7.40737">
        <ele>817</ele>
        <time>2015-07-12T14:49:53Z</time>
      </trkpt>
      <trkpt lat="48.42766" lon="7.4073">
        <ele>818</ele>
        <time>2015-07-12T14:49:57Z</time>
      </trkpt>
      <trkpt lat="48.42779" lon="7.40695">
        <ele>816</ele>
        <time>2015-07-12T14:50:14Z</time>
      </trkpt>
      <trkpt lat="48.42783" lon="7.40671">
        <ele>814</ele>
        <time>2015-07-12T14:50:23Z</time>
      </trkpt>
      <trkpt lat="48.42778" lon="7.40646">
        <ele>812</ele>
        <time>2015-07-12T14:50:38Z</time>
      </trkpt>
      <trkpt lat="48.42784" lon="7.40634">
        <ele>812</ele>
        <time>2015-07-12T14:50:43Z</time>
      </trkpt>
      <trkpt lat="48.4279" lon="7.40604">
        <ele>810</ele>
        <time>2015-07-12T14:50:54Z</time>
      </trkpt>
      <trkpt lat="48.42809" lon="7.40557">
        <ele>808</ele>
        <time>2015-07-12T14:51:16Z</time>
      </trkpt>
      <trkpt lat="48.42806" lon="7.40528">
        <ele>802</ele>
        <time>2015-07-12T14:51:27Z</time>
      </trkpt>
      <trkpt lat="48.42808" lon="7.40523">
        <ele>800</ele>
        <time>2015-07-12T14:51:30Z</time>
      </trkpt>
      <trkpt lat="48.4281" lon="7.4049">
        <ele>799</ele>
        <time>2015-07-12T14:51:47Z</time>
      </trkpt>
      <trkpt lat="48.42811" lon="7.40476">
        <ele>801</ele>
        <time>2015-07-12T14:51:54Z</time>
      </trkpt>
      <trkpt lat="48.42819" lon="7.40454">
        <ele>802</ele>
        <time>2015-07-12T14:52:08Z</time>
      </trkpt>
      <trkpt lat="48.42824" lon="7.40418">
        <ele>803</ele>
        <time>2015-07-12T14:52:23Z</time>
      </trkpt>
      <trkpt lat="48.42826" lon="7.40407">
        <ele>802</ele>
        <time>2015-07-12T14:52:29Z</time>
      </trkpt>
      <trkpt lat="48.42842" lon="7.40365">
        <ele>796</ele>
        <time>2015-07-12T14:52:48Z</time>
      </trkpt>
      <trkpt lat="48.42844" lon="7.4036">
        <ele>798</ele>
        <time>2015-07-12T14:52:54Z</time>
      </trkpt>
      <trkpt lat="48.42851" lon="7.40351">
        <ele>798</ele>
        <time>2015-07-12T14:53:07Z</time>
      </trkpt>
      <trkpt lat="48.42868" lon="7.40344">
        <ele>797</ele>
        <time>2015-07-12T14:53:16Z</time>
      </trkpt>
      <trkpt lat="48.42877" lon="7.40325">
        <ele>794</ele>
        <time>2015-07-12T14:53:34Z</time>
      </trkpt>
      <trkpt lat="48.42895" lon="7.40317">
        <ele>797</ele>
        <time>2015-07-12T14:53:48Z</time>
      </trkpt>
      <trkpt lat="48.429" lon="7.40311">
        <ele>796</ele>
        <time>2015-07-12T14:53:53Z</time>
      </trkpt>
      <trkpt lat="48.42913" lon="7.40302">
        <ele>796</ele>
        <time>2015-07-12T14:54:01Z</time>
      </trkpt>
      <trkpt lat="48.42932" lon="7.40299">
        <ele>796</ele>
        <time>2015-07-12T14:54:11Z</time>
      </trkpt>
      <trkpt lat="48.42948" lon="7.40292">
        <ele>799</ele>
        <time>2015-07-12T14:54:23Z</time>
      </trkpt>
      <trkpt lat="48.42962" lon="7.40283">
        <ele>796</ele>
        <time>2015-07-12T14:54:33Z</time>
      </trkpt>
      <trkpt lat="48.42979" lon="7.40273">
        <ele>792</ele>
        <time>2015-07-12T14:54:45Z</time>
      </trkpt>
      <trkpt lat="48.43006" lon="7.4027">
        <ele>790</ele>
        <time>2015-07-12T14:55:01Z</time>
      </trkpt>
      <trkpt lat="48.43017" lon="7.40265">
        <ele>792</ele>
        <time>2015-07-12T14:55:09Z</time>
      </trkpt>
      <trkpt lat="48.43027" lon="7.40266">
        <ele>791</ele>
        <time>2015-07-12T14:55:19Z</time>
      </trkpt>
      <trkpt lat="48.43047" lon="7.40268">
        <ele>794</ele>
        <time>2015-07-12T14:55:34Z</time>
      </trkpt>
      <trkpt lat="48.43054" lon="7.40273">
        <ele>788</ele>
        <time>2015-07-12T14:55:43Z</time>
      </trkpt>
      <trkpt lat="48.43049" lon="7.40282">
        <ele>786</ele>
        <time>2015-07-12T14:56:01Z</time>
      </trkpt>
      <trkpt lat="48.43041" lon="7.40268">
        <ele>787</ele>
        <time>2015-07-12T14:56:10Z</time>
      </trkpt>
      <trkpt lat="48.43028" lon="7.40254">
        <ele>787</ele>
        <time>2015-07-12T14:56:19Z</time>
      </trkpt>
      <trkpt lat="48.43011" lon="7.40228">
        <ele>792</ele>
        <time>2015-07-12T14:56:33Z</time>
      </trkpt>
      <trkpt lat="48.43005" lon="7.40211">
        <ele>789</ele>
        <time>2015-07-12T14:56:40Z</time>
      </trkpt>
      <trkpt lat="48.42993" lon="7.40193">
        <ele>788</ele>
        <time>2015-07-12T14:56:53Z</time>
      </trkpt>
      <trkpt lat="48.42968" lon="7.4014">
        <ele>780</ele>
        <time>2015-07-12T14:57:19Z</time>
      </trkpt>
      <trkpt lat="48.42967" lon="7.40138">
        <ele>779</ele>
        <time>2015-07-12T14:57:20Z</time>
      </trkpt>
      <trkpt lat="48.42986" lon="7.40099">
        <ele>778</ele>
        <time>2015-07-12T14:57:40Z</time>
      </trkpt>
      <trkpt lat="48.42979" lon="7.4009">
        <ele>779</ele>
        <time>2015-07-12T14:57:49Z</time>
      </trkpt>
      <trkpt lat="48.42974" lon="7.40082">
        <ele>778</ele>
        <time>2015-07-12T14:57:56Z</time>
      </trkpt>
      <trkpt lat="48.42966" lon="7.4008">
        <ele>780</ele>
        <time>2015-07-12T14:58:05Z</time>
      </trkpt>
      <trkpt lat="48.42952" lon="7.40071">
        <ele>779</ele>
        <time>2015-07-12T14:58:17Z</time>
      </trkpt>
      <trkpt lat="48.42935" lon="7.40066">
        <ele>773</ele>
        <time>2015-07-12T14:58:28Z</time>
      </trkpt>
      <trkpt lat="48.42919" lon="7.40055">
        <ele>771</ele>
        <time>2015-07-12T14:58:39Z</time>
      </trkpt>
      <trkpt lat="48.42898" lon="7.40048">
        <ele>773</ele>
        <time>2015-07-12T14:58:53Z</time>
      </trkpt>
      <trkpt lat="48.42887" lon="7.40044">
        <ele>772</ele>
        <time>2015-07-12T14:59:04Z</time>
      </trkpt>
      <trkpt lat="48.42869" lon="7.40042">
        <ele>774</ele>
        <time>2015-07-12T14:59:16Z</time>
      </trkpt>
      <trkpt lat="48.4285" lon="7.40051">
        <ele>770</ele>
        <time>2015-07-12T14:59:33Z</time>
      </trkpt>
      <trkpt lat="48.4284" lon="7.40061">
        <ele>769</ele>
        <time>2015-07-12T14:59:41Z</time>
      </trkpt>
      <trkpt lat="48.4283" lon="7.40078">
        <ele>768</ele>
        <time>2015-07-12T14:59:53Z</time>
      </trkpt>
      <trkpt lat="48.42822" lon="7.40096">
        <ele>768</ele>
        <time>2015-07-12T15:00:04Z</time>
      </trkpt>
      <trkpt lat="48.42808" lon="7.40119">
        <ele>769</ele>
        <time>2015-07-12T15:00:16Z</time>
      </trkpt>
      <trkpt lat="48.42795" lon="7.40136">
        <ele>769</ele>
        <time>2015-07-12T15:00:26Z</time>
      </trkpt>
      <trkpt lat="48.42782" lon="7.40143">
        <ele>769</ele>
        <time>2015-07-12T15:00:37Z</time>
      </trkpt>
      <trkpt lat="48.42757" lon="7.40153">
        <ele>772</ele>
        <time>2015-07-12T15:00:54Z</time>
      </trkpt>
      <trkpt lat="48.42748" lon="7.40151">
        <ele>771</ele>
        <time>2015-07-12T15:01:00Z</time>
      </trkpt>
      <trkpt lat="48.42724" lon="7.40153">
        <ele>773</ele>
        <time>2015-07-12T15:01:11Z</time>
      </trkpt>
      <trkpt lat="48.42705" lon="7.40144">
        <ele>771</ele>
        <time>2015-07-12T15:01:22Z</time>
      </trkpt>
      <trkpt lat="48.42688" lon="7.40138">
        <ele>769</ele>
        <time>2015-07-12T15:01:33Z</time>
      </trkpt>
      <trkpt lat="48.42666" lon="7.40125">
        <ele>770</ele>
        <time>2015-07-12T15:01:45Z</time>
      </trkpt>
      <trkpt lat="48.42649" lon="7.40091">
        <ele>764</ele>
        <time>2015-07-12T15:02:04Z</time>
      </trkpt>
      <trkpt lat="48.42647" lon="7.40088">
        <ele>765</ele>
        <time>2015-07-12T15:02:06Z</time>
      </trkpt>
      <trkpt lat="48.42638" lon="7.4007">
        <ele>762</ele>
        <time>2015-07-12T15:02:18Z</time>
      </trkpt>
      <trkpt lat="48.42629" lon="7.40053">
        <ele>756</ele>
        <time>2015-07-12T15:02:29Z</time>
      </trkpt>
      <trkpt lat="48.4261" lon="7.40017">
        <ele>753</ele>
        <time>2015-07-12T15:02:47Z</time>
      </trkpt>
      <trkpt lat="48.42598" lon="7.40007">
        <ele>755</ele>
        <time>2015-07-12T15:02:54Z</time>
      </trkpt>
      <trkpt lat="48.42575" lon="7.39988">
        <ele>755</ele>
        <time>2015-07-12T15:03:12Z</time>
      </trkpt>
      <trkpt lat="48.42572" lon="7.39985">
        <ele>756</ele>
        <time>2015-07-12T15:03:15Z</time>
      </trkpt>
      <trkpt lat="48.42555" lon="7.3998">
        <ele>752</ele>
        <time>2015-07-12T15:03:29Z</time>
      </trkpt>
      <trkpt lat="48.42539" lon="7.39977">
        <ele>750</ele>
        <time>2015-07-12T15:03:39Z</time>
      </trkpt>
      <trkpt lat="48.42521" lon="7.39978">
        <ele>747</ele>
        <time>2015-07-12T15:03:52Z</time>
      </trkpt>
      <trkpt lat="48.42503" lon="7.39995">
        <ele>746</ele>
        <time>2015-07-12T15:04:10Z</time>
      </trkpt>
      <trkpt lat="48.42501" lon="7.39998">
        <ele>746</ele>
        <time>2015-07-12T15:04:13Z</time>
      </trkpt>
      <trkpt lat="48.42485" lon="7.40014">
        <ele>740</ele>
        <time>2015-07-12T15:04:26Z</time>
      </trkpt>
      <trkpt lat="48.42472" lon="7.40026">
        <ele>738</ele>
        <time>2015-07-12T15:04:38Z</time>
      </trkpt>
      <trkpt lat="48.42464" lon="7.4004">
        <ele>738</ele>
        <time>2015-07-12T15:04:48Z</time>
      </trkpt>
      <trkpt lat="48.42458" lon="7.40051">
        <ele>740</ele>
        <time>2015-07-12T15:04:56Z</time>
      </trkpt>
      <trkpt lat="48.42445" lon="7.40065">
        <ele>739</ele>
        <time>2015-07-12T15:05:07Z</time>
      </trkpt>
      <trkpt lat="48.42423" lon="7.40084">
        <ele>732</ele>
        <time>2015-07-12T15:05:18Z</time>
      </trkpt>
      <trkpt lat="48.42407" lon="7.40103">
        <ele>730</ele>
        <time>2015-07-12T15:05:30Z</time>
      </trkpt>
      <trkpt lat="48.42389" lon="7.40106">
        <ele>728</ele>
        <time>2015-07-12T15:05:42Z</time>
      </trkpt>
      <trkpt lat="48.42366" lon="7.40111">
        <ele>736</ele>
        <time>2015-07-12T15:06:02Z</time>
      </trkpt>
      <trkpt lat="48.42361" lon="7.40112">
        <ele>734</ele>
        <time>2015-07-12T15:06:06Z</time>
      </trkpt>
      <trkpt lat="48.42351" lon="7.40107">
        <ele>733</ele>
        <time>2015-07-12T15:06:15Z</time>
      </trkpt>
      <trkpt lat="48.42333" lon="7.40082">
        <ele>731</ele>
        <time>2015-07-12T15:06:29Z</time>
      </trkpt>
      <trkpt lat="48.42323" lon="7.40068">
        <ele>731</ele>
        <time>2015-07-12T15:06:39Z</time>
      </trkpt>
      <trkpt lat="48.42302" lon="7.40033">
        <ele>729</ele>
        <time>2015-07-12T15:07:01Z</time>
      </trkpt>
      <trkpt lat="48.42304" lon="7.40023">
        <ele>725</ele>
        <time>2015-07-12T15:07:07Z</time>
      </trkpt>
      <trkpt lat="48.42302" lon="7.4002">
        <ele>724</ele>
        <time>2015-07-12T15:07:14Z</time>
      </trkpt>
      <trkpt lat="48.42294" lon="7.40012">
        <ele>725</ele>
        <time>2015-07-12T15:07:24Z</time>
      </trkpt>
      <trkpt lat="48.42279" lon="7.39986">
        <ele>728</ele>
        <time>2015-07-12T15:07:39Z</time>
      </trkpt>
      <trkpt lat="48.42268" lon="7.39958">
        <ele>723</ele>
        <time>2015-07-12T15:07:51Z</time>
      </trkpt>
      <trkpt lat="48.42266" lon="7.39928">
        <ele>723</ele>
        <time>2015-07-12T15:08:02Z</time>
      </trkpt>
      <trkpt lat="48.42263" lon="7.39893">
        <ele>717</ele>
        <time>2015-07-12T15:08:17Z</time>
      </trkpt>
      <trkpt lat="48.42262" lon="7.39881">
        <ele>721</ele>
        <time>2015-07-12T15:08:24Z</time>
      </trkpt>
      <trkpt lat="48.42256" lon="7.39858">
        <ele>720</ele>
        <time>2015-07-12T15:08:36Z</time>
      </trkpt>
      <trkpt lat="48.42251" lon="7.3983">
        <ele>721</ele>
        <time>2015-07-12T15:08:49Z</time>
      </trkpt>
      <trkpt lat="48.42251" lon="7.39796">
        <ele>719</ele>
        <time>2015-07-12T15:09:04Z</time>
      </trkpt>
      <trkpt lat="48.4225" lon="7.39783">
        <ele>720</ele>
        <time>2015-07-12T15:09:16Z</time>
      </trkpt>
      <trkpt lat="48.4225" lon="7.39782">
        <ele>720</ele>
        <time>2015-07-12T15:09:24Z</time>
      </trkpt>
      <trkpt lat="48.4225" lon="7.39782">
        <ele>720</ele>
        <time>2015-07-12T15:09:37Z</time>
      </trkpt>
      <trkpt lat="48.4225" lon="7.39782">
        <ele>720</ele>
        <time>2015-07-12T15:09:47Z</time>
      </trkpt>
      <trkpt lat="48.42248" lon="7.39775">
        <ele>720</ele>
        <time>2015-07-12T15:09:59Z</time>
      </trkpt>
      <trkpt lat="48.42248" lon="7.39732">
        <ele>715</ele>
        <time>2015-07-12T15:10:12Z</time>
      </trkpt>
      <trkpt lat="48.42246" lon="7.39713">
        <ele>714</ele>
        <time>2015-07-12T15:10:21Z</time>
      </trkpt>
      <trkpt lat="48.42242" lon="7.39687">
        <ele>718</ele>
        <time>2015-07-12T15:10:34Z</time>
      </trkpt>
      <trkpt lat="48.42245" lon="7.39665">
        <ele>716</ele>
        <time>2015-07-12T15:10:43Z</time>
      </trkpt>
      <trkpt lat="48.42248" lon="7.3964">
        <ele>717</ele>
        <time>2015-07-12T15:10:54Z</time>
      </trkpt>
      <trkpt lat="48.4225" lon="7.39604">
        <ele>720</ele>
        <time>2015-07-12T15:11:11Z</time>
      </trkpt>
      <trkpt lat="48.42247" lon="7.39567">
        <ele>725</ele>
        <time>2015-07-12T15:11:28Z</time>
      </trkpt>
      <trkpt lat="48.42244" lon="7.39556">
        <ele>723</ele>
        <time>2015-07-12T15:11:34Z</time>
      </trkpt>
      <trkpt lat="48.42246" lon="7.39507">
        <ele>716</ele>
        <time>2015-07-12T15:11:56Z</time>
      </trkpt>
      <trkpt lat="48.42245" lon="7.395">
        <ele>717</ele>
        <time>2015-07-12T15:11:59Z</time>
      </trkpt>
      <trkpt lat="48.42242" lon="7.39471">
        <ele>722</ele>
        <time>2015-07-12T15:12:11Z</time>
      </trkpt>
      <trkpt lat="48.42242" lon="7.39447">
        <ele>721</ele>
        <time>2015-07-12T15:12:22Z</time>
      </trkpt>
      <trkpt lat="48.42238" lon="7.39404">
        <ele>723</ele>
        <time>2015-07-12T15:12:40Z</time>
      </trkpt>
      <trkpt lat="48.42237" lon="7.39393">
        <ele>724</ele>
        <time>2015-07-12T15:12:47Z</time>
      </trkpt>
      <trkpt lat="48.42232" lon="7.39372">
        <ele>723</ele>
        <time>2015-07-12T15:12:56Z</time>
      </trkpt>
      <trkpt lat="48.42239" lon="7.39343">
        <ele>718</ele>
        <time>2015-07-12T15:13:07Z</time>
      </trkpt>
      <trkpt lat="48.42223" lon="7.39321">
        <ele>720</ele>
        <time>2015-07-12T15:13:26Z</time>
      </trkpt>
      <trkpt lat="48.42213" lon="7.39306">
        <ele>719</ele>
        <time>2015-07-12T15:13:34Z</time>
      </trkpt>
      <trkpt lat="48.4221" lon="7.39294">
        <ele>716</ele>
        <time>2015-07-12T15:13:41Z</time>
      </trkpt>
      <trkpt lat="48.42194" lon="7.39279">
        <ele>718</ele>
        <time>2015-07-12T15:13:52Z</time>
      </trkpt>
      <trkpt lat="48.42193" lon="7.39257">
        <ele>712</ele>
        <time>2015-07-12T15:14:13Z</time>
      </trkpt>
      <trkpt lat="48.42191" lon="7.39255">
        <ele>712</ele>
        <time>2015-07-12T15:14:22Z</time>
      </trkpt>
      <trkpt lat="48.42186" lon="7.39254">
        <ele>713</ele>
        <time>2015-07-12T15:14:26Z</time>
      </trkpt>
      <trkpt lat="48.42162" lon="7.39235">
        <ele>715</ele>
        <time>2015-07-12T15:14:40Z</time>
      </trkpt>
      <trkpt lat="48.42132" lon="7.3921">
        <ele>719</ele>
        <time>2015-07-12T15:14:57Z</time>
      </trkpt>
      <trkpt lat="48.42124" lon="7.392">
        <ele>720</ele>
        <time>2015-07-12T15:15:04Z</time>
      </trkpt>
      <trkpt lat="48.42115" lon="7.39197">
        <ele>721</ele>
        <time>2015-07-12T15:15:11Z</time>
      </trkpt>
      <trkpt lat="48.42102" lon="7.3919">
        <ele>723</ele>
        <time>2015-07-12T15:15:23Z</time>
      </trkpt>
      <trkpt lat="48.42079" lon="7.39171">
        <ele>722</ele>
        <time>2015-07-12T15:15:39Z</time>
      </trkpt>
      <trkpt lat="48.42071" lon="7.39166">
        <ele>717</ele>
        <time>2015-07-12T15:15:45Z</time>
      </trkpt>
      <trkpt lat="48.42058" lon="7.39155">
        <ele>718</ele>
        <time>2015-07-12T15:15:56Z</time>
      </trkpt>
      <trkpt lat="48.42025" lon="7.39143">
        <ele>716</ele>
        <time>2015-07-12T15:16:16Z</time>
      </trkpt>
      <trkpt lat="48.42019" lon="7.39137">
        <ele>713</ele>
        <time>2015-07-12T15:16:20Z</time>
      </trkpt>
      <trkpt lat="48.42005" lon="7.39119">
        <ele>710</ele>
        <time>2015-07-12T15:16:31Z</time>
      </trkpt>
      <trkpt lat="48.41986" lon="7.39079">
        <ele>706</ele>
        <time>2015-07-12T15:16:52Z</time>
      </trkpt>
      <trkpt lat="48.41986" lon="7.39076">
        <ele>706</ele>
        <time>2015-07-12T15:16:53Z</time>
      </trkpt>
      <trkpt lat="48.41971" lon="7.39047">
        <ele>710</ele>
        <time>2015-07-12T15:17:10Z</time>
      </trkpt>
      <trkpt lat="48.41964" lon="7.39002">
        <ele>706</ele>
        <time>2015-07-12T15:17:28Z</time>
      </trkpt>
      <trkpt lat="48.41964" lon="7.38997">
        <ele>706</ele>
        <time>2015-07-12T15:17:30Z</time>
      </trkpt>
      <trkpt lat="48.41967" lon="7.38967">
        <ele>702</ele>
        <time>2015-07-12T15:17:41Z</time>
      </trkpt>
      <trkpt lat="48.41976" lon="7.38943">
        <ele>702</ele>
        <time>2015-07-12T15:17:52Z</time>
      </trkpt>
      <trkpt lat="48.41977" lon="7.38915">
        <ele>705</ele>
        <time>2015-07-12T15:18:04Z</time>
      </trkpt>
      <trkpt lat="48.41989" lon="7.38879">
        <ele>706</ele>
        <time>2015-07-12T15:18:22Z</time>
      </trkpt>
      <trkpt lat="48.41992" lon="7.38867">
        <ele>707</ele>
        <time>2015-07-12T15:18:27Z</time>
      </trkpt>
      <trkpt lat="48.42011" lon="7.38833">
        <ele>706</ele>
        <time>2015-07-12T15:18:48Z</time>
      </trkpt>
      <trkpt lat="48.42012" lon="7.38832">
        <ele>706</ele>
        <time>2015-07-12T15:18:49Z</time>
      </trkpt>
      <trkpt lat="48.42031" lon="7.38798">
        <ele>706</ele>
        <time>2015-07-12T15:19:10Z</time>
      </trkpt>
      <trkpt lat="48.42036" lon="7.38789">
        <ele>705</ele>
        <time>2015-07-12T15:19:14Z</time>
      </trkpt>
      <trkpt lat="48.42049" lon="7.38769">
        <ele>704</ele>
        <time>2015-07-12T15:19:26Z</time>
      </trkpt>
      <trkpt lat="48.42062" lon="7.38747">
        <ele>701</ele>
        <time>2015-07-12T15:19:38Z</time>
      </trkpt>
      <trkpt lat="48.42071" lon="7.38726">
        <ele>699</ele>
        <time>2015-07-12T15:19:49Z</time>
      </trkpt>
      <trkpt lat="48.42088" lon="7.38707">
        <ele>703</ele>
        <time>2015-07-12T15:20:05Z</time>
      </trkpt>
      <trkpt lat="48.42094" lon="7.38697">
        <ele>701</ele>
        <time>2015-07-12T15:20:12Z</time>
      </trkpt>
      <trkpt lat="48.42106" lon="7.38677">
        <ele>699</ele>
        <time>2015-07-12T15:20:23Z</time>
      </trkpt>
      <trkpt lat="48.42111" lon="7.38645">
        <ele>699</ele>
        <time>2015-07-12T15:20:35Z</time>
      </trkpt>
      <trkpt lat="48.42116" lon="7.38622">
        <ele>700</ele>
        <time>2015-07-12T15:20:45Z</time>
      </trkpt>
      <trkpt lat="48.42117" lon="7.38591">
        <ele>699</ele>
        <time>2015-07-12T15:20:59Z</time>
      </trkpt>
      <trkpt lat="48.4212" lon="7.38571">
        <ele>698</ele>
        <time>2015-07-12T15:21:09Z</time>
      </trkpt>
      <trkpt lat="48.42119" lon="7.38546">
        <ele>701</ele>
        <time>2015-07-12T15:21:20Z</time>
      </trkpt>
      <trkpt lat="48.42119" lon="7.38524">
        <ele>701</ele>
        <time>2015-07-12T15:21:31Z</time>
      </trkpt>
      <trkpt lat="48.42112" lon="7.38493">
        <ele>704</ele>
        <time>2015-07-12T15:21:45Z</time>
      </trkpt>
      <trkpt lat="48.42111" lon="7.38473">
        <ele>705</ele>
        <time>2015-07-12T15:21:54Z</time>
      </trkpt>
      <trkpt lat="48.42108" lon="7.3844">
        <ele>707</ele>
        <time>2015-07-12T15:22:07Z</time>
      </trkpt>
      <trkpt lat="48.42106" lon="7.38417">
        <ele>705</ele>
        <time>2015-07-12T15:22:19Z</time>
      </trkpt>
      <trkpt lat="48.42101" lon="7.38396">
        <ele>705</ele>
        <time>2015-07-12T15:22:31Z</time>
      </trkpt>
      <trkpt lat="48.42088" lon="7.3835">
        <ele>703</ele>
        <time>2015-07-12T15:22:52Z</time>
      </trkpt>
      <trkpt lat="48.42088" lon="7.38348">
        <ele>702</ele>
        <time>2015-07-12T15:22:54Z</time>
      </trkpt>
      <trkpt lat="48.42082" lon="7.38319">
        <ele>702</ele>
        <time>2015-07-12T15:23:06Z</time>
      </trkpt>
      <trkpt lat="48.42072" lon="7.38291">
        <ele>703</ele>
        <time>2015-07-12T15:23:21Z</time>
      </trkpt>
      <trkpt lat="48.42069" lon="7.3825">
        <ele>702</ele>
        <time>2015-07-12T15:23:39Z</time>
      </trkpt>
      <trkpt lat="48.42067" lon="7.38243">
        <ele>703</ele>
        <time>2015-07-12T15:23:43Z</time>
      </trkpt>
      <trkpt lat="48.42065" lon="7.38221">
        <ele>702</ele>
        <time>2015-07-12T15:23:52Z</time>
      </trkpt>
      <trkpt lat="48.42063" lon="7.38188">
        <ele>701</ele>
        <time>2015-07-12T15:24:07Z</time>
      </trkpt>
      <trkpt lat="48.42066" lon="7.38167">
        <ele>697</ele>
        <time>2015-07-12T15:24:15Z</time>
      </trkpt>
      <trkpt lat="48.4207" lon="7.38137">
        <ele>697</ele>
        <time>2015-07-12T15:24:28Z</time>
      </trkpt>
      <trkpt lat="48.42068" lon="7.38104">
        <ele>698</ele>
        <time>2015-07-12T15:24:42Z</time>
      </trkpt>
      <trkpt lat="48.42072" lon="7.38079">
        <ele>695</ele>
        <time>2015-07-12T15:24:53Z</time>
      </trkpt>
      <trkpt lat="48.42076" lon="7.38053">
        <ele>693</ele>
        <time>2015-07-12T15:25:03Z</time>
      </trkpt>
      <trkpt lat="48.42081" lon="7.3803">
        <ele>694</ele>
        <time>2015-07-12T15:25:14Z</time>
      </trkpt>
      <trkpt lat="48.42089" lon="7.38007">
        <ele>692</ele>
        <time>2015-07-12T15:25:25Z</time>
      </trkpt>
      <trkpt lat="48.42094" lon="7.37985">
        <ele>694</ele>
        <time>2015-07-12T15:25:36Z</time>
      </trkpt>
      <trkpt lat="48.42102" lon="7.37966">
        <ele>695</ele>
        <time>2015-07-12T15:25:48Z</time>
      </trkpt>
      <trkpt lat="48.42111" lon="7.37911">
        <ele>692</ele>
        <time>2015-07-12T15:26:09Z</time>
      </trkpt>
      <trkpt lat="48.42115" lon="7.37903">
        <ele>693</ele>
        <time>2015-07-12T15:26:13Z</time>
      </trkpt>
      <trkpt lat="48.42126" lon="7.3787">
        <ele>691</ele>
        <time>2015-07-12T15:26:29Z</time>
      </trkpt>
      <trkpt lat="48.42124" lon="7.37848">
        <ele>690</ele>
        <time>2015-07-12T15:26:36Z</time>
      </trkpt>
      <trkpt lat="48.42131" lon="7.37831">
        <ele>692</ele>
        <time>2015-07-12T15:26:45Z</time>
      </trkpt>
      <trkpt lat="48.42135" lon="7.37804">
        <ele>694</ele>
        <time>2015-07-12T15:26:57Z</time>
      </trkpt>
      <trkpt lat="48.42141" lon="7.37788">
        <ele>695</ele>
        <time>2015-07-12T15:27:06Z</time>
      </trkpt>
      <trkpt lat="48.42149" lon="7.37766">
        <ele>696</ele>
        <time>2015-07-12T15:27:18Z</time>
      </trkpt>
      <trkpt lat="48.42159" lon="7.37723">
        <ele>696</ele>
        <time>2015-07-12T15:27:36Z</time>
      </trkpt>
      <trkpt lat="48.42164" lon="7.37706">
        <ele>699</ele>
        <time>2015-07-12T15:27:45Z</time>
      </trkpt>
      <trkpt lat="48.42169" lon="7.37688">
        <ele>699</ele>
        <time>2015-07-12T15:27:54Z</time>
      </trkpt>
      <trkpt lat="48.42193" lon="7.3766">
        <ele>697</ele>
        <time>2015-07-12T15:28:13Z</time>
      </trkpt>
      <trkpt lat="48.42201" lon="7.37646">
        <ele>693</ele>
        <time>2015-07-12T15:28:20Z</time>
      </trkpt>
      <trkpt lat="48.42211" lon="7.3763">
        <ele>691</ele>
        <time>2015-07-12T15:28:29Z</time>
      </trkpt>
      <trkpt lat="48.42222" lon="7.37611">
        <ele>692</ele>
        <time>2015-07-12T15:28:40Z</time>
      </trkpt>
      <trkpt lat="48.42236" lon="7.37589">
        <ele>687</ele>
        <time>2015-07-12T15:28:53Z</time>
      </trkpt>
      <trkpt lat="48.42239" lon="7.37564">
        <ele>687</ele>
        <time>2015-07-12T15:29:04Z</time>
      </trkpt>
      <trkpt lat="48.42242" lon="7.37555">
        <ele>688</ele>
        <time>2015-07-12T15:29:13Z</time>
      </trkpt>
      <trkpt lat="48.42253" lon="7.37543">
        <ele>690</ele>
        <time>2015-07-12T15:29:30Z</time>
      </trkpt>
      <trkpt lat="48.4226" lon="7.37536">
        <ele>688</ele>
        <time>2015-07-12T15:29:39Z</time>
      </trkpt>
      <trkpt lat="48.4227" lon="7.37535">
        <ele>690</ele>
        <time>2015-07-12T15:29:46Z</time>
      </trkpt>
      <trkpt lat="48.42286" lon="7.37526">
        <ele>692</ele>
        <time>2015-07-12T15:30:00Z</time>
      </trkpt>
      <trkpt lat="48.42298" lon="7.37515">
        <ele>696</ele>
        <time>2015-07-12T15:30:09Z</time>
      </trkpt>
      <trkpt lat="48.42326" lon="7.37494">
        <ele>695</ele>
        <time>2015-07-12T15:30:30Z</time>
      </trkpt>
      <trkpt lat="48.42328" lon="7.37493">
        <ele>695</ele>
        <time>2015-07-12T15:30:31Z</time>
      </trkpt>
      <trkpt lat="48.42343" lon="7.37485">
        <ele>696</ele>
        <time>2015-07-12T15:30:42Z</time>
      </trkpt>
      <trkpt lat="48.42359" lon="7.37477">
        <ele>696</ele>
        <time>2015-07-12T15:30:54Z</time>
      </trkpt>
      <trkpt lat="48.4237" lon="7.37465">
        <ele>696</ele>
        <time>2015-07-12T15:31:06Z</time>
      </trkpt>
      <trkpt lat="48.42387" lon="7.3745">
        <ele>694</ele>
        <time>2015-07-12T15:31:20Z</time>
      </trkpt>
      <trkpt lat="48.42399" lon="7.37454">
        <ele>693</ele>
        <time>2015-07-12T15:31:27Z</time>
      </trkpt>
      <trkpt lat="48.42421" lon="7.37464">
        <ele>696</ele>
        <time>2015-07-12T15:31:39Z</time>
      </trkpt>
      <trkpt lat="48.42436" lon="7.37462">
        <ele>694</ele>
        <time>2015-07-12T15:31:49Z</time>
      </trkpt>
      <trkpt lat="48.4245" lon="7.37461">
        <ele>695</ele>
        <time>2015-07-12T15:32:02Z</time>
      </trkpt>
      <trkpt lat="48.42466" lon="7.37446">
        <ele>697</ele>
        <time>2015-07-12T15:32:22Z</time>
      </trkpt>
      <trkpt lat="48.42469" lon="7.37446">
        <ele>696</ele>
        <time>2015-07-12T15:32:24Z</time>
      </trkpt>
      <trkpt lat="48.4248" lon="7.37445">
        <ele>697</ele>
        <time>2015-07-12T15:32:35Z</time>
      </trkpt>
      <trkpt lat="48.42484" lon="7.3744">
        <ele>701</ele>
        <time>2015-07-12T15:32:48Z</time>
      </trkpt>
      <trkpt lat="48.42486" lon="7.37447">
        <ele>699</ele>
        <time>2015-07-12T15:32:58Z</time>
      </trkpt>
      <trkpt lat="48.42483" lon="7.37458">
        <ele>701</ele>
        <time>2015-07-12T15:33:17Z</time>
      </trkpt>
      <trkpt lat="48.42483" lon="7.37459">
        <ele>700</ele>
        <time>2015-07-12T15:33:21Z</time>
      </trkpt>
      <trkpt lat="48.42481" lon="7.3746">
        <ele>702</ele>
        <time>2015-07-12T15:33:34Z</time>
      </trkpt>
      <trkpt lat="48.42483" lon="7.37454">
        <ele>702</ele>
        <time>2015-07-12T15:33:46Z</time>
      </trkpt>
      <trkpt lat="48.42505" lon="7.37426">
        <ele>699</ele>
        <time>2015-07-12T15:34:02Z</time>
      </trkpt>
      <trkpt lat="48.42511" lon="7.37413">
        <ele>697</ele>
        <time>2015-07-12T15:34:09Z</time>
      </trkpt>
      <trkpt lat="48.42521" lon="7.37391">
        <ele>701</ele>
        <time>2015-07-12T15:34:20Z</time>
      </trkpt>
      <trkpt lat="48.42537" lon="7.37357">
        <ele>699</ele>
        <time>2015-07-12T15:34:36Z</time>
      </trkpt>
      <trkpt lat="48.42547" lon="7.37339">
        <ele>695</ele>
        <time>2015-07-12T15:34:47Z</time>
      </trkpt>
      <trkpt lat="48.42553" lon="7.3733">
        <ele>696</ele>
        <time>2015-07-12T15:34:53Z</time>
      </trkpt>
      <trkpt lat="48.42556" lon="7.37301">
        <ele>692</ele>
        <time>2015-07-12T15:35:06Z</time>
      </trkpt>
      <trkpt lat="48.42557" lon="7.37271">
        <ele>695</ele>
        <time>2015-07-12T15:35:19Z</time>
      </trkpt>
      <trkpt lat="48.42562" lon="7.37238">
        <ele>695</ele>
        <time>2015-07-12T15:35:32Z</time>
      </trkpt>
      <trkpt lat="48.42564" lon="7.37229">
        <ele>696</ele>
        <time>2015-07-12T15:35:37Z</time>
      </trkpt>
      <trkpt lat="48.42572" lon="7.37185">
        <ele>695</ele>
        <time>2015-07-12T15:35:58Z</time>
      </trkpt>
      <trkpt lat="48.42573" lon="7.37183">
        <ele>696</ele>
        <time>2015-07-12T15:35:59Z</time>
      </trkpt>
      <trkpt lat="48.42576" lon="7.3715">
        <ele>699</ele>
        <time>2015-07-12T15:36:12Z</time>
      </trkpt>
      <trkpt lat="48.42581" lon="7.37126">
        <ele>700</ele>
        <time>2015-07-12T15:36:22Z</time>
      </trkpt>
      <trkpt lat="48.4258" lon="7.37106">
        <ele>706</ele>
        <time>2015-07-12T15:36:34Z</time>
      </trkpt>
      <trkpt lat="48.42565" lon="7.37095">
        <ele>711</ele>
        <time>2015-07-12T15:36:45Z</time>
      </trkpt>
      <trkpt lat="48.42552" lon="7.37079">
        <ele>713</ele>
        <time>2015-07-12T15:36:59Z</time>
      </trkpt>
      <trkpt lat="48.42543" lon="7.37056">
        <ele>709</ele>
        <time>2015-07-12T15:37:10Z</time>
      </trkpt>
      <trkpt lat="48.42529" lon="7.37021">
        <ele>709</ele>
        <time>2015-07-12T15:37:26Z</time>
      </trkpt>
      <trkpt lat="48.42523" lon="7.36999">
        <ele>706</ele>
        <time>2015-07-12T15:37:34Z</time>
      </trkpt>
      <trkpt lat="48.42505" lon="7.36966">
        <ele>707</ele>
        <time>2015-07-12T15:37:52Z</time>
      </trkpt>
      <trkpt lat="48.42501" lon="7.36958">
        <ele>707</ele>
        <time>2015-07-12T15:37:56Z</time>
      </trkpt>
      <trkpt lat="48.42492" lon="7.36926">
        <ele>706</ele>
        <time>2015-07-12T15:38:12Z</time>
      </trkpt>
      <trkpt lat="48.42483" lon="7.36911">
        <ele>709</ele>
        <time>2015-07-12T15:38:21Z</time>
      </trkpt>
      <trkpt lat="48.42463" lon="7.36888">
        <ele>710</ele>
        <time>2015-07-12T15:38:40Z</time>
      </trkpt>
      <trkpt lat="48.42458" lon="7.36883">
        <ele>710</ele>
        <time>2015-07-12T15:38:44Z</time>
      </trkpt>
      <trkpt lat="48.42441" lon="7.36872">
        <ele>711</ele>
        <time>2015-07-12T15:38:59Z</time>
      </trkpt>
      <trkpt lat="48.42429" lon="7.36873">
        <ele>709</ele>
        <time>2015-07-12T15:39:11Z</time>
      </trkpt>
      <trkpt lat="48.42422" lon="7.36868">
        <ele>705</ele>
        <time>2015-07-12T15:39:16Z</time>
      </trkpt>
      <trkpt lat="48.42405" lon="7.36852">
        <ele>705</ele>
        <time>2015-07-12T15:39:29Z</time>
      </trkpt>
      <trkpt lat="48.4239" lon="7.36842">
        <ele>710</ele>
        <time>2015-07-12T15:39:42Z</time>
      </trkpt>
      <trkpt lat="48.42379" lon="7.36833">
        <ele>712</ele>
        <time>2015-07-12T15:39:52Z</time>
      </trkpt>
      <trkpt lat="48.42358" lon="7.36804">
        <ele>717</ele>
        <time>2015-07-12T15:40:09Z</time>
      </trkpt>
      <trkpt lat="48.4235" lon="7.36794">
        <ele>717</ele>
        <time>2015-07-12T15:40:15Z</time>
      </trkpt>
      <trkpt lat="48.4234" lon="7.36772">
        <ele>723</ele>
        <time>2015-07-12T15:40:27Z</time>
      </trkpt>
      <trkpt lat="48.42331" lon="7.36762">
        <ele>720</ele>
        <time>2015-07-12T15:40:38Z</time>
      </trkpt>
      <trkpt lat="48.42316" lon="7.36719">
        <ele>718</ele>
        <time>2015-07-12T15:41:00Z</time>
      </trkpt>
      <trkpt lat="48.42315" lon="7.36717">
        <ele>718</ele>
        <time>2015-07-12T15:41:01Z</time>
      </trkpt>
      <trkpt lat="48.42304" lon="7.36695">
        <ele>720</ele>
        <time>2015-07-12T15:41:14Z</time>
      </trkpt>
      <trkpt lat="48.42293" lon="7.3669">
        <ele>720</ele>
        <time>2015-07-12T15:41:23Z</time>
      </trkpt>
      <trkpt lat="48.42276" lon="7.36678">
        <ele>724</ele>
        <time>2015-07-12T15:41:35Z</time>
      </trkpt>
      <trkpt lat="48.42265" lon="7.36655">
        <ele>728</ele>
        <time>2015-07-12T15:41:49Z</time>
      </trkpt>
      <trkpt lat="48.42253" lon="7.36629">
        <ele>727</ele>
        <time>2015-07-12T15:42:02Z</time>
      </trkpt>
      <trkpt lat="48.42245" lon="7.36616">
        <ele>724</ele>
        <time>2015-07-12T15:42:11Z</time>
      </trkpt>
      <trkpt lat="48.42238" lon="7.36598">
        <ele>725</ele>
        <time>2015-07-12T15:42:22Z</time>
      </trkpt>
      <trkpt lat="48.42233" lon="7.36573">
        <ele>725</ele>
        <time>2015-07-12T15:42:35Z</time>
      </trkpt>
      <trkpt lat="48.42226" lon="7.36545">
        <ele>726</ele>
        <time>2015-07-12T15:42:47Z</time>
      </trkpt>
      <trkpt lat="48.42214" lon="7.36531">
        <ele>727</ele>
        <time>2015-07-12T15:42:58Z</time>
      </trkpt>
      <trkpt lat="48.42198" lon="7.36504">
        <ele>734</ele>
        <time>2015-07-12T15:43:17Z</time>
      </trkpt>
      <trkpt lat="48.42196" lon="7.36495">
        <ele>736</ele>
        <time>2015-07-12T15:43:21Z</time>
      </trkpt>
      <trkpt lat="48.42193" lon="7.36467">
        <ele>738</ele>
        <time>2015-07-12T15:43:34Z</time>
      </trkpt>
      <trkpt lat="48.42184" lon="7.36448">
        <ele>743</ele>
        <time>2015-07-12T15:43:46Z</time>
      </trkpt>
      <trkpt lat="48.42177" lon="7.36429">
        <ele>741</ele>
        <time>2015-07-12T15:43:57Z</time>
      </trkpt>
      <trkpt lat="48.42169" lon="7.36412">
        <ele>745</ele>
        <time>2015-07-12T15:44:06Z</time>
      </trkpt>
      <trkpt lat="48.42162" lon="7.36392">
        <ele>745</ele>
        <time>2015-07-12T15:44:17Z</time>
      </trkpt>
      <trkpt lat="48.42154" lon="7.36371">
        <ele>748</ele>
        <time>2015-07-12T15:44:28Z</time>
      </trkpt>
      <trkpt lat="48.42143" lon="7.36352">
        <ele>752</ele>
        <time>2015-07-12T15:44:43Z</time>
      </trkpt>
      <trkpt lat="48.42138" lon="7.36356">
        <ele>749</ele>
        <time>2015-07-12T15:44:50Z</time>
      </trkpt>
      <trkpt lat="48.42115" lon="7.36344">
        <ele>745</ele>
        <time>2015-07-12T15:45:11Z</time>
      </trkpt>
      <trkpt lat="48.42112" lon="7.36342">
        <ele>745</ele>
        <time>2015-07-12T15:45:14Z</time>
      </trkpt>
      <trkpt lat="48.42092" lon="7.36337">
        <ele>736</ele>
        <time>2015-07-12T15:45:30Z</time>
      </trkpt>
      <trkpt lat="48.42073" lon="7.36326">
        <ele>737</ele>
        <time>2015-07-12T15:45:47Z</time>
      </trkpt>
      <trkpt lat="48.42071" lon="7.36325">
        <ele>736</ele>
        <time>2015-07-12T15:45:49Z</time>
      </trkpt>
      <trkpt lat="48.42054" lon="7.36321">
        <ele>735</ele>
        <time>2015-07-12T15:46:00Z</time>
      </trkpt>
      <trkpt lat="48.42029" lon="7.3631">
        <ele>727</ele>
        <time>2015-07-12T15:46:18Z</time>
      </trkpt>
      <trkpt lat="48.42019" lon="7.36304">
        <ele>725</ele>
        <time>2015-07-12T15:46:25Z</time>
      </trkpt>
      <trkpt lat="48.41998" lon="7.36272">
        <ele>728</ele>
        <time>2015-07-12T15:46:42Z</time>
      </trkpt>
      <trkpt lat="48.4199" lon="7.36251">
        <ele>729</ele>
        <time>2015-07-12T15:46:52Z</time>
      </trkpt>
      <trkpt lat="48.41986" lon="7.36229">
        <ele>728</ele>
        <time>2015-07-12T15:47:01Z</time>
      </trkpt>
      <trkpt lat="48.4197" lon="7.36208">
        <ele>732</ele>
        <time>2015-07-12T15:47:16Z</time>
      </trkpt>
      <trkpt lat="48.41959" lon="7.36189">
        <ele>731</ele>
        <time>2015-07-12T15:47:29Z</time>
      </trkpt>
      <trkpt lat="48.41944" lon="7.36169">
        <ele>728</ele>
        <time>2015-07-12T15:47:45Z</time>
      </trkpt>
      <trkpt lat="48.4194" lon="7.36163">
        <ele>729</ele>
        <time>2015-07-12T15:47:51Z</time>
      </trkpt>
      <trkpt lat="48.41932" lon="7.36145">
        <ele>730</ele>
        <time>2015-07-12T15:48:01Z</time>
      </trkpt>
      <trkpt lat="48.41923" lon="7.36126">
        <ele>731</ele>
        <time>2015-07-12T15:48:13Z</time>
      </trkpt>
      <trkpt lat="48.41919" lon="7.36097">
        <ele>737</ele>
        <time>2015-07-12T15:48:27Z</time>
      </trkpt>
      <trkpt lat="48.41917" lon="7.36069">
        <ele>739</ele>
        <time>2015-07-12T15:48:41Z</time>
      </trkpt>
      <trkpt lat="48.41918" lon="7.36058">
        <ele>740</ele>
        <time>2015-07-12T15:48:46Z</time>
      </trkpt>
      <trkpt lat="48.41917" lon="7.36011">
        <ele>743</ele>
        <time>2015-07-12T15:49:08Z</time>
      </trkpt>
      <trkpt lat="48.41917" lon="7.36005">
        <ele>742</ele>
        <time>2015-07-12T15:49:11Z</time>
      </trkpt>
      <trkpt lat="48.41923" lon="7.35972">
        <ele>745</ele>
        <time>2015-07-12T15:49:27Z</time>
      </trkpt>
      <trkpt lat="48.4193" lon="7.3596">
        <ele>741</ele>
        <time>2015-07-12T15:49:36Z</time>
      </trkpt>
      <trkpt lat="48.41939" lon="7.35943">
        <ele>742</ele>
        <time>2015-07-12T15:49:48Z</time>
      </trkpt>
      <trkpt lat="48.41952" lon="7.35922">
        <ele>742</ele>
        <time>2015-07-12T15:50:04Z</time>
      </trkpt>
      <trkpt lat="48.41957" lon="7.35916">
        <ele>745</ele>
        <time>2015-07-12T15:50:09Z</time>
      </trkpt>
      <trkpt lat="48.41975" lon="7.35901">
        <ele>749</ele>
        <time>2015-07-12T15:50:24Z</time>
      </trkpt>
      <trkpt lat="48.41982" lon="7.35893">
        <ele>746</ele>
        <time>2015-07-12T15:50:31Z</time>
      </trkpt>
      <trkpt lat="48.41999" lon="7.35871">
        <ele>745</ele>
        <time>2015-07-12T15:50:46Z</time>
      </trkpt>
      <trkpt lat="48.42005" lon="7.35859">
        <ele>746</ele>
        <time>2015-07-12T15:50:54Z</time>
      </trkpt>
      <trkpt lat="48.42018" lon="7.35845">
        <ele>752</ele>
        <time>2015-07-12T15:51:05Z</time>
      </trkpt>
      <trkpt lat="48.42037" lon="7.35821">
        <ele>753</ele>
        <time>2015-07-12T15:51:23Z</time>
      </trkpt>
      <trkpt lat="48.42041" lon="7.35814">
        <ele>755</ele>
        <time>2015-07-12T15:51:30Z</time>
      </trkpt>
      <trkpt lat="48.42046" lon="7.35805">
        <ele>758</ele>
        <time>2015-07-12T15:51:41Z</time>
      </trkpt>
      <trkpt lat="48.42051" lon="7.35775">
        <ele>761</ele>
        <time>2015-07-12T15:51:59Z</time>
      </trkpt>
      <trkpt lat="48.42054" lon="7.35763">
        <ele>763</ele>
        <time>2015-07-12T15:52:06Z</time>
      </trkpt>
      <trkpt lat="48.42058" lon="7.35751">
        <ele>760</ele>
        <time>2015-07-12T15:52:13Z</time>
      </trkpt>
      <trkpt lat="48.42053" lon="7.35733">
        <ele>762</ele>
        <time>2015-07-12T15:52:24Z</time>
      </trkpt>
      <trkpt lat="48.42047" lon="7.35711">
        <ele>767</ele>
        <time>2015-07-12T15:52:38Z</time>
      </trkpt>
      <trkpt lat="48.42048" lon="7.35676">
        <ele>772</ele>
        <time>2015-07-12T15:52:55Z</time>
      </trkpt>
      <trkpt lat="48.4205" lon="7.3566">
        <ele>771</ele>
        <time>2015-07-12T15:53:02Z</time>
      </trkpt>
      <trkpt lat="48.42043" lon="7.35646">
        <ele>772</ele>
        <time>2015-07-12T15:53:10Z</time>
      </trkpt>
      <trkpt lat="48.42047" lon="7.3561">
        <ele>767</ele>
        <time>2015-07-12T15:53:25Z</time>
      </trkpt>
      <trkpt lat="48.42049" lon="7.35594">
        <ele>767</ele>
        <time>2015-07-12T15:53:37Z</time>
      </trkpt>
      <trkpt lat="48.42038" lon="7.356">
        <ele>770</ele>
        <time>2015-07-12T15:53:52Z</time>
      </trkpt>
      <trkpt lat="48.42037" lon="7.35593">
        <ele>770</ele>
        <time>2015-07-12T15:54:00Z</time>
      </trkpt>
      <trkpt lat="48.42043" lon="7.35589">
        <ele>769</ele>
        <time>2015-07-12T15:54:18Z</time>
      </trkpt>
      <trkpt lat="48.42043" lon="7.35587">
        <ele>769</ele>
        <time>2015-07-12T15:54:22Z</time>
      </trkpt>
      <trkpt lat="48.42045" lon="7.35586">
        <ele>769</ele>
        <time>2015-07-12T15:54:36Z</time>
      </trkpt>
      <trkpt lat="48.42045" lon="7.35586">
        <ele>769</ele>
        <time>2015-07-12T15:54:51Z</time>
      </trkpt>
      <trkpt lat="48.42045" lon="7.35586">
        <ele>769</ele>
        <time>2015-07-12T15:54:55Z</time>
      </trkpt>
      <trkpt lat="48.42018" lon="7.35614">
        <ele>771</ele>
        <time>2015-07-12T15:55:13Z</time>
      </trkpt>
      <trkpt lat="48.4201" lon="7.35619">
        <ele>776</ele>
        <time>2015-07-12T15:55:20Z</time>
      </trkpt>
      <trkpt lat="48.42002" lon="7.3563">
        <ele>779</ele>
        <time>2015-07-12T15:55:28Z</time>
      </trkpt>
      <trkpt lat="48.41986" lon="7.35639">
        <ele>768</ele>
        <time>2015-07-12T15:55:41Z</time>
      </trkpt>
      <trkpt lat="48.41973" lon="7.35647">
        <ele>770</ele>
        <time>2015-07-12T15:55:51Z</time>
      </trkpt>
      <trkpt lat="48.41955" lon="7.35652">
        <ele>769</ele>
        <time>2015-07-12T15:56:02Z</time>
      </trkpt>
      <trkpt lat="48.41938" lon="7.35654">
        <ele>768</ele>
        <time>2015-07-12T15:56:13Z</time>
      </trkpt>
      <trkpt lat="48.41907" lon="7.3564">
        <ele>763</ele>
        <time>2015-07-12T15:56:32Z</time>
      </trkpt>
      <trkpt lat="48.41895" lon="7.35632">
        <ele>762</ele>
        <time>2015-07-12T15:56:40Z</time>
      </trkpt>
      <trkpt lat="48.41872" lon="7.35619">
        <ele>767</ele>
        <time>2015-07-12T15:56:58Z</time>
      </trkpt>
      <trkpt lat="48.41858" lon="7.35601">
        <ele>766</ele>
        <time>2015-07-12T15:57:10Z</time>
      </trkpt>
      <trkpt lat="48.41852" lon="7.35597">
        <ele>766</ele>
        <time>2015-07-12T15:57:14Z</time>
      </trkpt>
      <trkpt lat="48.41836" lon="7.35581">
        <ele>766</ele>
        <time>2015-07-12T15:57:27Z</time>
      </trkpt>
      <trkpt lat="48.41817" lon="7.35546">
        <ele>768</ele>
        <time>2015-07-12T15:57:45Z</time>
      </trkpt>
      <trkpt lat="48.41813" lon="7.35539">
        <ele>770</ele>
        <time>2015-07-12T15:57:49Z</time>
      </trkpt>
      <trkpt lat="48.41804" lon="7.35516">
        <ele>773</ele>
        <time>2015-07-12T15:58:01Z</time>
      </trkpt>
      <trkpt lat="48.41793" lon="7.35475">
        <ele>778</ele>
        <time>2015-07-12T15:58:19Z</time>
      </trkpt>
      <trkpt lat="48.41792" lon="7.35461">
        <ele>780</ele>
        <time>2015-07-12T15:58:26Z</time>
      </trkpt>
      <trkpt lat="48.41787" lon="7.35438">
        <ele>781</ele>
        <time>2015-07-12T15:58:37Z</time>
      </trkpt>
      <trkpt lat="48.41781" lon="7.35404">
        <ele>785</ele>
        <time>2015-07-12T15:58:54Z</time>
      </trkpt>
      <trkpt lat="48.41778" lon="7.35371">
        <ele>783</ele>
        <time>2015-07-12T15:59:07Z</time>
      </trkpt>
      <trkpt lat="48.41775" lon="7.35361">
        <ele>787</ele>
        <time>2015-07-12T15:59:12Z</time>
      </trkpt>
      <trkpt lat="48.41772" lon="7.35326">
        <ele>784</ele>
        <time>2015-07-12T15:59:32Z</time>
      </trkpt>
      <trkpt lat="48.4177" lon="7.3532">
        <ele>778</ele>
        <time>2015-07-12T15:59:36Z</time>
      </trkpt>
      <trkpt lat="48.41751" lon="7.35303">
        <ele>772</ele>
        <time>2015-07-12T15:59:55Z</time>
      </trkpt>
      <trkpt lat="48.4175" lon="7.35302">
        <ele>772</ele>
        <time>2015-07-12T15:59:56Z</time>
      </trkpt>
      <trkpt lat="48.41737" lon="7.35285">
        <ele>775</ele>
        <time>2015-07-12T16:00:09Z</time>
      </trkpt>
      <trkpt lat="48.41722" lon="7.35262">
        <ele>775</ele>
        <time>2015-07-12T16:00:27Z</time>
      </trkpt>
      <trkpt lat="48.41716" lon="7.3525">
        <ele>781</ele>
        <time>2015-07-12T16:00:35Z</time>
      </trkpt>
      <trkpt lat="48.41711" lon="7.35239">
        <ele>779</ele>
        <time>2015-07-12T16:00:43Z</time>
      </trkpt>
      <trkpt lat="48.41696" lon="7.35204">
        <ele>779</ele>
        <time>2015-07-12T16:01:00Z</time>
      </trkpt>
      <trkpt lat="48.41683" lon="7.35198">
        <ele>779</ele>
        <time>2015-07-12T16:01:09Z</time>
      </trkpt>
      <trkpt lat="48.41674" lon="7.35188">
        <ele>782</ele>
        <time>2015-07-12T16:01:19Z</time>
      </trkpt>
      <trkpt lat="48.4166" lon="7.35172">
        <ele>787</ele>
        <time>2015-07-12T16:01:31Z</time>
      </trkpt>
      <trkpt lat="48.41642" lon="7.35165">
        <ele>783</ele>
        <time>2015-07-12T16:01:44Z</time>
      </trkpt>
      <trkpt lat="48.41616" lon="7.35146">
        <ele>777</ele>
        <time>2015-07-12T16:02:00Z</time>
      </trkpt>
      <trkpt lat="48.41608" lon="7.3514">
        <ele>774</ele>
        <time>2015-07-12T16:02:06Z</time>
      </trkpt>
      <trkpt lat="48.41598" lon="7.35132">
        <ele>774</ele>
        <time>2015-07-12T16:02:14Z</time>
      </trkpt>
      <trkpt lat="48.41575" lon="7.3511">
        <ele>772</ele>
        <time>2015-07-12T16:02:34Z</time>
      </trkpt>
      <trkpt lat="48.41559" lon="7.35093">
        <ele>777</ele>
        <time>2015-07-12T16:02:47Z</time>
      </trkpt>
      <trkpt lat="48.41548" lon="7.35089">
        <ele>778</ele>
        <time>2015-07-12T16:02:55Z</time>
      </trkpt>
      <trkpt lat="48.41542" lon="7.35084">
        <ele>777</ele>
        <time>2015-07-12T16:03:02Z</time>
      </trkpt>
      <trkpt lat="48.41538" lon="7.35064">
        <ele>778</ele>
        <time>2015-07-12T16:03:14Z</time>
      </trkpt>
      <trkpt lat="48.41528" lon="7.35044">
        <ele>781</ele>
        <time>2015-07-12T16:03:28Z</time>
      </trkpt>
      <trkpt lat="48.41529" lon="7.3502">
        <ele>785</ele>
        <time>2015-07-12T16:03:40Z</time>
      </trkpt>
      <trkpt lat="48.41517" lon="7.35002">
        <ele>793</ele>
        <time>2015-07-12T16:03:52Z</time>
      </trkpt>
      <trkpt lat="48.41506" lon="7.34974">
        <ele>795</ele>
        <time>2015-07-12T16:04:06Z</time>
      </trkpt>
      <trkpt lat="48.41501" lon="7.34965">
        <ele>792</ele>
        <time>2015-07-12T16:04:12Z</time>
      </trkpt>
      <trkpt lat="48.41489" lon="7.34949">
        <ele>789</ele>
        <time>2015-07-12T16:04:24Z</time>
      </trkpt>
      <trkpt lat="48.41486" lon="7.34929">
        <ele>790</ele>
        <time>2015-07-12T16:04:35Z</time>
      </trkpt>
      <trkpt lat="48.41486" lon="7.34908">
        <ele>791</ele>
        <time>2015-07-12T16:04:46Z</time>
      </trkpt>
      <trkpt lat="48.41491" lon="7.34888">
        <ele>798</ele>
        <time>2015-07-12T16:04:57Z</time>
      </trkpt>
      <trkpt lat="48.41483" lon="7.34864">
        <ele>800</ele>
        <time>2015-07-12T16:05:11Z</time>
      </trkpt>
      <trkpt lat="48.41477" lon="7.34844">
        <ele>802</ele>
        <time>2015-07-12T16:05:21Z</time>
      </trkpt>
      <trkpt lat="48.41472" lon="7.34828">
        <ele>803</ele>
        <time>2015-07-12T16:05:31Z</time>
      </trkpt>
      <trkpt lat="48.4146" lon="7.34835">
        <ele>799</ele>
        <time>2015-07-12T16:05:43Z</time>
      </trkpt>
      <trkpt lat="48.41444" lon="7.34856">
        <ele>793</ele>
        <time>2015-07-12T16:06:03Z</time>
      </trkpt>
      <trkpt lat="48.41434" lon="7.34873">
        <ele>793</ele>
        <time>2015-07-12T16:06:15Z</time>
      </trkpt>
      <trkpt lat="48.41414" lon="7.34865">
        <ele>787</ele>
        <time>2015-07-12T16:06:30Z</time>
      </trkpt>
      <trkpt lat="48.41414" lon="7.34865">
        <ele>787</ele>
        <time>2015-07-12T16:06:31Z</time>
      </trkpt>
      <trkpt lat="48.41416" lon="7.34822">
        <ele>786</ele>
        <time>2015-07-12T16:06:53Z</time>
      </trkpt>
      <trkpt lat="48.41416" lon="7.3482">
        <ele>786</ele>
        <time>2015-07-12T16:06:55Z</time>
      </trkpt>
      <trkpt lat="48.41413" lon="7.34786">
        <ele>789</ele>
        <time>2015-07-12T16:07:12Z</time>
      </trkpt>
      <trkpt lat="48.41404" lon="7.34744">
        <ele>787</ele>
        <time>2015-07-12T16:07:32Z</time>
      </trkpt>
      <trkpt lat="48.41407" lon="7.34729">
        <ele>783</ele>
        <time>2015-07-12T16:07:38Z</time>
      </trkpt>
      <trkpt lat="48.41407" lon="7.34707">
        <ele>781</ele>
        <time>2015-07-12T16:07:49Z</time>
      </trkpt>
      <trkpt lat="48.41409" lon="7.34689">
        <ele>779</ele>
        <time>2015-07-12T16:07:58Z</time>
      </trkpt>
      <trkpt lat="48.41409" lon="7.34664">
        <ele>780</ele>
        <time>2015-07-12T16:08:09Z</time>
      </trkpt>
      <trkpt lat="48.41408" lon="7.34628">
        <ele>776</ele>
        <time>2015-07-12T16:08:24Z</time>
      </trkpt>
      <trkpt lat="48.41408" lon="7.34609">
        <ele>776</ele>
        <time>2015-07-12T16:08:33Z</time>
      </trkpt>
      <trkpt lat="48.41414" lon="7.3458">
        <ele>775</ele>
        <time>2015-07-12T16:08:47Z</time>
      </trkpt>
      <trkpt lat="48.41425" lon="7.34559">
        <ele>768</ele>
        <time>2015-07-12T16:08:59Z</time>
      </trkpt>
      <trkpt lat="48.41428" lon="7.34537">
        <ele>769</ele>
        <time>2015-07-12T16:09:10Z</time>
      </trkpt>
      <trkpt lat="48.41433" lon="7.34517">
        <ele>768</ele>
        <time>2015-07-12T16:09:20Z</time>
      </trkpt>
      <trkpt lat="48.41447" lon="7.34498">
        <ele>765</ele>
        <time>2015-07-12T16:09:33Z</time>
      </trkpt>
      <trkpt lat="48.41456" lon="7.34482">
        <ele>767</ele>
        <time>2015-07-12T16:09:43Z</time>
      </trkpt>
      <trkpt lat="48.41478" lon="7.34473">
        <ele>764</ele>
        <time>2015-07-12T16:09:57Z</time>
      </trkpt>
      <trkpt lat="48.41487" lon="7.34458">
        <ele>768</ele>
        <time>2015-07-12T16:10:06Z</time>
      </trkpt>
      <trkpt lat="48.41503" lon="7.34444">
        <ele>763</ele>
        <time>2015-07-12T16:10:19Z</time>
      </trkpt>
      <trkpt lat="48.41512" lon="7.34431">
        <ele>762</ele>
        <time>2015-07-12T16:10:28Z</time>
      </trkpt>
      <trkpt lat="48.4152" lon="7.34407">
        <ele>760</ele>
        <time>2015-07-12T16:10:40Z</time>
      </trkpt>
      <trkpt lat="48.41529" lon="7.34374">
        <ele>758</ele>
        <time>2015-07-12T16:10:56Z</time>
      </trkpt>
      <trkpt lat="48.41541" lon="7.34356">
        <ele>757</ele>
        <time>2015-07-12T16:11:07Z</time>
      </trkpt>
      <trkpt lat="48.41549" lon="7.34345">
        <ele>754</ele>
        <time>2015-07-12T16:11:15Z</time>
      </trkpt>
      <trkpt lat="48.4156" lon="7.34302">
        <ele>747</ele>
        <time>2015-07-12T16:11:34Z</time>
      </trkpt>
      <trkpt lat="48.41565" lon="7.34271">
        <ele>743</ele>
        <time>2015-07-12T16:11:48Z</time>
      </trkpt>
      <trkpt lat="48.41565" lon="7.34269">
        <ele>744</ele>
        <time>2015-07-12T16:11:49Z</time>
      </trkpt>
      <trkpt lat="48.41575" lon="7.3424">
        <ele>748</ele>
        <time>2015-07-12T16:12:04Z</time>
      </trkpt>
      <trkpt lat="48.41581" lon="7.34198">
        <ele>746</ele>
        <time>2015-07-12T16:12:24Z</time>
      </trkpt>
      <trkpt lat="48.41581" lon="7.34184">
        <ele>745</ele>
        <time>2015-07-12T16:12:29Z</time>
      </trkpt>
      <trkpt lat="48.41586" lon="7.34162">
        <ele>746</ele>
        <time>2015-07-12T16:12:39Z</time>
      </trkpt>
      <trkpt lat="48.41592" lon="7.34134">
        <ele>743</ele>
        <time>2015-07-12T16:12:52Z</time>
      </trkpt>
      <trkpt lat="48.41599" lon="7.34111">
        <ele>742</ele>
        <time>2015-07-12T16:13:04Z</time>
      </trkpt>
      <trkpt lat="48.41606" lon="7.34087">
        <ele>738</ele>
        <time>2015-07-12T16:13:16Z</time>
      </trkpt>
      <trkpt lat="48.41614" lon="7.34072">
        <ele>741</ele>
        <time>2015-07-12T16:13:25Z</time>
      </trkpt>
      <trkpt lat="48.41627" lon="7.34049">
        <ele>725</ele>
        <time>2015-07-12T16:13:36Z</time>
      </trkpt>
      <trkpt lat="48.4164" lon="7.34004">
        <ele>725</ele>
        <time>2015-07-12T16:13:57Z</time>
      </trkpt>
      <trkpt lat="48.4164" lon="7.34002">
        <ele>725</ele>
        <time>2015-07-12T16:13:58Z</time>
      </trkpt>
      <trkpt lat="48.41633" lon="7.33979">
        <ele>729</ele>
        <time>2015-07-12T16:14:11Z</time>
      </trkpt>
      <trkpt lat="48.41625" lon="7.33964">
        <ele>725</ele>
        <time>2015-07-12T16:14:22Z</time>
      </trkpt>
      <trkpt lat="48.41615" lon="7.33956">
        <ele>725</ele>
        <time>2015-07-12T16:14:31Z</time>
      </trkpt>
      <trkpt lat="48.41601" lon="7.33946">
        <ele>723</ele>
        <time>2015-07-12T16:14:42Z</time>
      </trkpt>
      <trkpt lat="48.41572" lon="7.33949">
        <ele>717</ele>
        <time>2015-07-12T16:15:01Z</time>
      </trkpt>
      <trkpt lat="48.41564" lon="7.3396">
        <ele>715</ele>
        <time>2015-07-12T16:15:07Z</time>
      </trkpt>
      <trkpt lat="48.4155" lon="7.33972">
        <ele>716</ele>
        <time>2015-07-12T16:15:16Z</time>
      </trkpt>
      <trkpt lat="48.41535" lon="7.3398">
        <ele>719</ele>
        <time>2015-07-12T16:15:27Z</time>
      </trkpt>
      <trkpt lat="48.41525" lon="7.33985">
        <ele>718</ele>
        <time>2015-07-12T16:15:39Z</time>
      </trkpt>
      <trkpt lat="48.41512" lon="7.34">
        <ele>717</ele>
        <time>2015-07-12T16:15:53Z</time>
      </trkpt>
      <trkpt lat="48.41496" lon="7.34003">
        <ele>717</ele>
        <time>2015-07-12T16:16:03Z</time>
      </trkpt>
      <trkpt lat="48.41476" lon="7.33987">
        <ele>718</ele>
        <time>2015-07-12T16:16:19Z</time>
      </trkpt>
      <trkpt lat="48.41466" lon="7.33978">
        <ele>720</ele>
        <time>2015-07-12T16:16:28Z</time>
      </trkpt>
      <trkpt lat="48.41443" lon="7.33963">
        <ele>719</ele>
        <time>2015-07-12T16:16:43Z</time>
      </trkpt>
      <trkpt lat="48.41414" lon="7.33947">
        <ele>715</ele>
        <time>2015-07-12T16:17:03Z</time>
      </trkpt>
      <trkpt lat="48.41407" lon="7.33939">
        <ele>713</ele>
        <time>2015-07-12T16:17:09Z</time>
      </trkpt>
      <trkpt lat="48.41388" lon="7.33935">
        <ele>714</ele>
        <time>2015-07-12T16:17:23Z</time>
      </trkpt>
      <trkpt lat="48.41376" lon="7.33931">
        <ele>711</ele>
        <time>2015-07-12T16:17:30Z</time>
      </trkpt>
      <trkpt lat="48.41365" lon="7.33929">
        <ele>710</ele>
        <time>2015-07-12T16:17:40Z</time>
      </trkpt>
      <trkpt lat="48.41332" lon="7.33928">
        <ele>709</ele>
        <time>2015-07-12T16:18:00Z</time>
      </trkpt>
      <trkpt lat="48.41327" lon="7.33926">
        <ele>708</ele>
        <time>2015-07-12T16:18:04Z</time>
      </trkpt>
      <trkpt lat="48.41314" lon="7.33923">
        <ele>711</ele>
        <time>2015-07-12T16:18:14Z</time>
      </trkpt>
      <trkpt lat="48.41296" lon="7.33919">
        <ele>711</ele>
        <time>2015-07-12T16:18:27Z</time>
      </trkpt>
      <trkpt lat="48.41274" lon="7.3392">
        <ele>709</ele>
        <time>2015-07-12T16:18:41Z</time>
      </trkpt>
      <trkpt lat="48.4125" lon="7.33924">
        <ele>707</ele>
        <time>2015-07-12T16:18:57Z</time>
      </trkpt>
      <trkpt lat="48.41235" lon="7.33927">
        <ele>710</ele>
        <time>2015-07-12T16:19:07Z</time>
      </trkpt>
      <trkpt lat="48.41215" lon="7.33933">
        <ele>705</ele>
        <time>2015-07-12T16:19:20Z</time>
      </trkpt>
      <trkpt lat="48.41195" lon="7.33933">
        <ele>710</ele>
        <time>2015-07-12T16:19:34Z</time>
      </trkpt>
      <trkpt lat="48.41179" lon="7.3393">
        <ele>708</ele>
        <time>2015-07-12T16:19:44Z</time>
      </trkpt>
      <trkpt lat="48.41173" lon="7.33929">
        <ele>709</ele>
        <time>2015-07-12T16:19:49Z</time>
      </trkpt>
      <trkpt lat="48.41154" lon="7.3392">
        <ele>708</ele>
        <time>2015-07-12T16:20:02Z</time>
      </trkpt>
      <trkpt lat="48.4114" lon="7.33917">
        <ele>706</ele>
        <time>2015-07-12T16:20:12Z</time>
      </trkpt>
      <trkpt lat="48.41123" lon="7.33914">
        <ele>694</ele>
        <time>2015-07-12T16:20:23Z</time>
      </trkpt>
      <trkpt lat="48.41096" lon="7.33911">
        <ele>694</ele>
        <time>2015-07-12T16:20:43Z</time>
      </trkpt>
      <trkpt lat="48.41093" lon="7.33911">
        <ele>693</ele>
        <time>2015-07-12T16:20:45Z</time>
      </trkpt>
      <trkpt lat="48.41075" lon="7.33906">
        <ele>690</ele>
        <time>2015-07-12T16:20:58Z</time>
      </trkpt>
      <trkpt lat="48.41061" lon="7.33903">
        <ele>689</ele>
        <time>2015-07-12T16:21:09Z</time>
      </trkpt>
      <trkpt lat="48.4104" lon="7.33917">
        <ele>684</ele>
        <time>2015-07-12T16:21:31Z</time>
      </trkpt>
      <trkpt lat="48.41039" lon="7.33919">
        <ele>683</ele>
        <time>2015-07-12T16:21:32Z</time>
      </trkpt>
      <trkpt lat="48.41029" lon="7.33943">
        <ele>682</ele>
        <time>2015-07-12T16:21:45Z</time>
      </trkpt>
      <trkpt lat="48.4102" lon="7.33965">
        <ele>687</ele>
        <time>2015-07-12T16:21:57Z</time>
      </trkpt>
      <trkpt lat="48.40994" lon="7.33978">
        <ele>678</ele>
        <time>2015-07-12T16:22:13Z</time>
      </trkpt>
      <trkpt lat="48.40966" lon="7.33992">
        <ele>676</ele>
        <time>2015-07-12T16:22:30Z</time>
      </trkpt>
      <trkpt lat="48.40957" lon="7.33997">
        <ele>677</ele>
        <time>2015-07-12T16:22:37Z</time>
      </trkpt>
      <trkpt lat="48.40947" lon="7.33999">
        <ele>674</ele>
        <time>2015-07-12T16:22:43Z</time>
      </trkpt>
      <trkpt lat="48.40928" lon="7.33977">
        <ele>665</ele>
        <time>2015-07-12T16:23:01Z</time>
      </trkpt>
      <trkpt lat="48.40923" lon="7.33966">
        <ele>663</ele>
        <time>2015-07-12T16:23:06Z</time>
      </trkpt>
      <trkpt lat="48.40911" lon="7.33944">
        <ele>663</ele>
        <time>2015-07-12T16:23:21Z</time>
      </trkpt>
      <trkpt lat="48.409" lon="7.33925">
        <ele>658</ele>
        <time>2015-07-12T16:23:33Z</time>
      </trkpt>
      <trkpt lat="48.4089" lon="7.3391">
        <ele>661</ele>
        <time>2015-07-12T16:23:46Z</time>
      </trkpt>
      <trkpt lat="48.40871" lon="7.33895">
        <ele>664</ele>
        <time>2015-07-12T16:24:01Z</time>
      </trkpt>
      <trkpt lat="48.40862" lon="7.33887">
        <ele>664</ele>
        <time>2015-07-12T16:24:08Z</time>
      </trkpt>
      <trkpt lat="48.40843" lon="7.33877">
        <ele>667</ele>
        <time>2015-07-12T16:24:19Z</time>
      </trkpt>
      <trkpt lat="48.40833" lon="7.33847">
        <ele>656</ele>
        <time>2015-07-12T16:24:34Z</time>
      </trkpt>
      <trkpt lat="48.40819" lon="7.33822">
        <ele>657</ele>
        <time>2015-07-12T16:24:50Z</time>
      </trkpt>
      <trkpt lat="48.40807" lon="7.33805">
        <ele>655</ele>
        <time>2015-07-12T16:25:00Z</time>
      </trkpt>
      <trkpt lat="48.40795" lon="7.33788">
        <ele>651</ele>
        <time>2015-07-12T16:25:11Z</time>
      </trkpt>
      <trkpt lat="48.40782" lon="7.3378">
        <ele>652</ele>
        <time>2015-07-12T16:25:24Z</time>
      </trkpt>
      <trkpt lat="48.40774" lon="7.33781">
        <ele>654</ele>
        <time>2015-07-12T16:25:29Z</time>
      </trkpt>
      <trkpt lat="48.40746" lon="7.33783">
        <ele>648</ele>
        <time>2015-07-12T16:25:51Z</time>
      </trkpt>
      <trkpt lat="48.40744" lon="7.33782">
        <ele>646</ele>
        <time>2015-07-12T16:25:54Z</time>
      </trkpt>
      <trkpt lat="48.40727" lon="7.33777">
        <ele>642</ele>
        <time>2015-07-12T16:26:07Z</time>
      </trkpt>
      <trkpt lat="48.40698" lon="7.33765">
        <ele>645</ele>
        <time>2015-07-12T16:26:27Z</time>
      </trkpt>
      <trkpt lat="48.40697" lon="7.33764">
        <ele>643</ele>
        <time>2015-07-12T16:26:28Z</time>
      </trkpt>
      <trkpt lat="48.40677" lon="7.33738">
        <ele>647</ele>
        <time>2015-07-12T16:26:45Z</time>
      </trkpt>
      <trkpt lat="48.40671" lon="7.33708">
        <ele>642</ele>
        <time>2015-07-12T16:26:59Z</time>
      </trkpt>
      <trkpt lat="48.40667" lon="7.33692">
        <ele>638</ele>
        <time>2015-07-12T16:27:06Z</time>
      </trkpt>
      <trkpt lat="48.40658" lon="7.33665">
        <ele>631</ele>
        <time>2015-07-12T16:27:23Z</time>
      </trkpt>
      <trkpt lat="48.40653" lon="7.33646">
        <ele>631</ele>
        <time>2015-07-12T16:27:34Z</time>
      </trkpt>
      <trkpt lat="48.40649" lon="7.33631">
        <ele>638</ele>
        <time>2015-07-12T16:27:42Z</time>
      </trkpt>
      <trkpt lat="48.40635" lon="7.33587">
        <ele>636</ele>
        <time>2015-07-12T16:28:03Z</time>
      </trkpt>
      <trkpt lat="48.40634" lon="7.33571">
        <ele>630</ele>
        <time>2015-07-12T16:28:10Z</time>
      </trkpt>
      <trkpt lat="48.40635" lon="7.33558">
        <ele>630</ele>
        <time>2015-07-12T16:28:16Z</time>
      </trkpt>
      <trkpt lat="48.40634" lon="7.33528">
        <ele>628</ele>
        <time>2015-07-12T16:28:29Z</time>
      </trkpt>
      <trkpt lat="48.40632" lon="7.33503">
        <ele>624</ele>
        <time>2015-07-12T16:28:38Z</time>
      </trkpt>
      <trkpt lat="48.40621" lon="7.33474">
        <ele>621</ele>
        <time>2015-07-12T16:28:53Z</time>
      </trkpt>
      <trkpt lat="48.40612" lon="7.33461">
        <ele>622</ele>
        <time>2015-07-12T16:29:03Z</time>
      </trkpt>
      <trkpt lat="48.40598" lon="7.3342">
        <ele>615</ele>
        <time>2015-07-12T16:29:26Z</time>
      </trkpt>
      <trkpt lat="48.40597" lon="7.33416">
        <ele>617</ele>
        <time>2015-07-12T16:29:28Z</time>
      </trkpt>
      <trkpt lat="48.40587" lon="7.33397">
        <ele>622</ele>
        <time>2015-07-12T16:29:40Z</time>
      </trkpt>
      <trkpt lat="48.40574" lon="7.33373">
        <ele>621</ele>
        <time>2015-07-12T16:29:57Z</time>
      </trkpt>
      <trkpt lat="48.40569" lon="7.33361">
        <ele>617</ele>
        <time>2015-07-12T16:30:04Z</time>
      </trkpt>
      <trkpt lat="48.4056" lon="7.33348">
        <ele>610</ele>
        <time>2015-07-12T16:30:13Z</time>
      </trkpt>
      <trkpt lat="48.40546" lon="7.33334">
        <ele>606</ele>
        <time>2015-07-12T16:30:25Z</time>
      </trkpt>
      <trkpt lat="48.40529" lon="7.33321">
        <ele>609</ele>
        <time>2015-07-12T16:30:43Z</time>
      </trkpt>
      <trkpt lat="48.40517" lon="7.33313">
        <ele>608</ele>
        <time>2015-07-12T16:30:54Z</time>
      </trkpt>
      <trkpt lat="48.40503" lon="7.333">
        <ele>612</ele>
        <time>2015-07-12T16:31:08Z</time>
      </trkpt>
      <trkpt lat="48.40498" lon="7.33295">
        <ele>613</ele>
        <time>2015-07-12T16:31:12Z</time>
      </trkpt>
      <trkpt lat="48.40487" lon="7.33282">
        <ele>611</ele>
        <time>2015-07-12T16:31:23Z</time>
      </trkpt>
      <trkpt lat="48.40481" lon="7.33264">
        <ele>601</ele>
        <time>2015-07-12T16:31:35Z</time>
      </trkpt>
      <trkpt lat="48.40472" lon="7.33248">
        <ele>596</ele>
        <time>2015-07-12T16:31:48Z</time>
      </trkpt>
      <trkpt lat="48.40466" lon="7.33224">
        <ele>597</ele>
        <time>2015-07-12T16:32:04Z</time>
      </trkpt>
      <trkpt lat="48.40461" lon="7.33209">
        <ele>594</ele>
        <time>2015-07-12T16:32:14Z</time>
      </trkpt>
      <trkpt lat="48.40453" lon="7.33185">
        <ele>593</ele>
        <time>2015-07-12T16:32:26Z</time>
      </trkpt>
      <trkpt lat="48.40452" lon="7.33147">
        <ele>585</ele>
        <time>2015-07-12T16:32:45Z</time>
      </trkpt>
      <trkpt lat="48.40452" lon="7.33145">
        <ele>585</ele>
        <time>2015-07-12T16:32:46Z</time>
      </trkpt>
      <trkpt lat="48.40443" lon="7.33114">
        <ele>585</ele>
        <time>2015-07-12T16:33:02Z</time>
      </trkpt>
      <trkpt lat="48.40452" lon="7.331">
        <ele>585</ele>
        <time>2015-07-12T16:33:10Z</time>
      </trkpt>
      <trkpt lat="48.40462" lon="7.33081">
        <ele>584</ele>
        <time>2015-07-12T16:33:23Z</time>
      </trkpt>
      <trkpt lat="48.40472" lon="7.33062">
        <ele>583</ele>
        <time>2015-07-12T16:33:35Z</time>
      </trkpt>
      <trkpt lat="48.40482" lon="7.33049">
        <ele>582</ele>
        <time>2015-07-12T16:33:44Z</time>
      </trkpt>
      <trkpt lat="48.40498" lon="7.33029">
        <ele>586</ele>
        <time>2015-07-12T16:33:59Z</time>
      </trkpt>
      <trkpt lat="48.40509" lon="7.33017">
        <ele>590</ele>
        <time>2015-07-12T16:34:09Z</time>
      </trkpt>
      <trkpt lat="48.40523" lon="7.33003">
        <ele>592</ele>
        <time>2015-07-12T16:34:23Z</time>
      </trkpt>
      <trkpt lat="48.40537" lon="7.32988">
        <ele>594</ele>
        <time>2015-07-12T16:34:35Z</time>
      </trkpt>
      <trkpt lat="48.40559" lon="7.32981">
        <ele>588</ele>
        <time>2015-07-12T16:34:51Z</time>
      </trkpt>
      <trkpt lat="48.40579" lon="7.32962">
        <ele>588</ele>
        <time>2015-07-12T16:35:11Z</time>
      </trkpt>
      <trkpt lat="48.40581" lon="7.32955">
        <ele>592</ele>
        <time>2015-07-12T16:35:26Z</time>
      </trkpt>
      <trkpt lat="48.40578" lon="7.32951">
        <ele>597</ele>
        <time>2015-07-12T16:35:38Z</time>
      </trkpt>
      <trkpt lat="48.40578" lon="7.32951">
        <ele>597</ele>
        <time>2015-07-12T16:35:40Z</time>
      </trkpt>
      <trkpt lat="48.4058" lon="7.32952">
        <ele>597</ele>
        <time>2015-07-12T16:35:56Z</time>
      </trkpt>
      <trkpt lat="48.40579" lon="7.32952">
        <ele>598</ele>
        <time>2015-07-12T16:36:06Z</time>
      </trkpt>
      <trkpt lat="48.4058" lon="7.32953">
        <ele>597</ele>
        <time>2015-07-12T16:36:20Z</time>
      </trkpt>
      <trkpt lat="48.40581" lon="7.32952">
        <ele>595</ele>
        <time>2015-07-12T16:36:32Z</time>
      </trkpt>
      <trkpt lat="48.40579" lon="7.32955">
        <ele>592</ele>
        <time>2015-07-12T16:36:52Z</time>
      </trkpt>
      <trkpt lat="48.4058" lon="7.32955">
        <ele>592</ele>
        <time>2015-07-12T16:36:58Z</time>
      </trkpt>
      <trkpt lat="48.40579" lon="7.32955">
        <ele>593</ele>
        <time>2015-07-12T16:37:07Z</time>
      </trkpt>
      <trkpt lat="48.40579" lon="7.32955">
        <ele>593</ele>
        <time>2015-07-12T16:37:19Z</time>
      </trkpt>
      <trkpt lat="48.40578" lon="7.32952">
        <ele>596</ele>
        <time>2015-07-12T16:37:30Z</time>
      </trkpt>
      <trkpt lat="48.40579" lon="7.32944">
        <ele>599</ele>
        <time>2015-07-12T16:37:49Z</time>
      </trkpt>
      <trkpt lat="48.40579" lon="7.32944">
        <ele>598</ele>
        <time>2015-07-12T16:37:52Z</time>
      </trkpt>
      <trkpt lat="48.40579" lon="7.32946">
        <ele>596</ele>
        <time>2015-07-12T16:38:04Z</time>
      </trkpt>
      <trkpt lat="48.40577" lon="7.32945">
        <ele>596</ele>
        <time>2015-07-12T16:38:14Z</time>
      </trkpt>
      <trkpt lat="48.40575" lon="7.32946">
        <ele>596</ele>
        <time>2015-07-12T16:38:26Z</time>
      </trkpt>
      <trkpt lat="48.40574" lon="7.32944">
        <ele>597</ele>
        <time>2015-07-12T16:38:45Z</time>
      </trkpt>
      <trkpt lat="48.40574" lon="7.32944">
        <ele>597</ele>
        <time>2015-07-12T16:38:52Z</time>
      </trkpt>
      <trkpt lat="48.40574" lon="7.32944">
        <ele>597</ele>
        <time>2015-07-12T16:38:59Z</time>
      </trkpt>
      <trkpt lat="48.40584" lon="7.32955">
        <ele>589</ele>
        <time>2015-07-12T16:39:18Z</time>
      </trkpt>
      <trkpt lat="48.40583" lon="7.32954">
        <ele>591</ele>
        <time>2015-07-12T16:39:25Z</time>
      </trkpt>
      <trkpt lat="48.40582" lon="7.32952">
        <ele>593</ele>
        <time>2015-07-12T16:39:38Z</time>
      </trkpt>
      <trkpt lat="48.40582" lon="7.32952">
        <ele>593</ele>
        <time>2015-07-12T16:39:42Z</time>
      </trkpt>
      <trkpt lat="48.40582" lon="7.32952">
        <ele>593</ele>
        <time>2015-07-12T16:39:54Z</time>
      </trkpt>
      <trkpt lat="48.40769" lon="7.33957">
        <ele>675</ele>
        <time>2015-07-12T16:43:51Z</time>
      </trkpt>
    </trkseg>
  </trk>
</gpx>